Time,TemperatureF,DewpointF,PressureIn,WindDirection,WindDirectionDegrees,WindSpeedMPH,WindSpeedGustMPH,Humidity,HourlyPrecipIn,Conditions,Clouds,dailyrainin,SolarRadiationWatts/m^2,SoftwareType,DateUTC
2013-12-21 00:00:00,33.3,32.3,29.83,WNW,290,4.6,4.6,96,0.00,,,0.17,0.00,VWS V14.01,2013-12-21 06:00:00,
2013-12-21 00:01:00,33.4,32.4,29.83,WNW,290,1.1,2.3,96,0.00,,,0.00,0.00,VWS V14.01,2013-12-21 06:01:00,
2013-12-21 00:04:00,33.4,32.4,29.83,WNW,290,3.4,3.4,96,0.00,,,0.00,0.00,VWS V14.01,2013-12-21 06:04:00,
2013-12-21 00:06:00,33.4,32.4,29.83,WNW,294,5.8,5.8,96,0.00,,,0.00,0.00,VWS V14.01,2013-12-21 06:06:00,
2013-12-21 00:07:00,33.3,32.3,29.83,WNW,294,2.3,5.8,96,0.00,,,0.00,0.00,VWS V14.01,2013-12-21 06:07:00,
2013-12-21 00:08:00,33.3,32.3,29.83,WNW,294,1.1,5.8,96,0.00,,,0.00,0.00,VWS V14.01,2013-12-21 06:08:00,
2013-12-21 00:10:00,33.3,32.3,29.83,WNW,294,2.3,5.8,96,0.00,,,0.00,0.00,VWS V14.01,2013-12-21 06:10:00,
2013-12-21 00:12:00,33.3,32.3,29.83,WNW,294,1.1,3.4,96,0.00,,,0.00,0.00,VWS V14.01,2013-12-21 06:12:00,
2013-12-21 00:13:00,33.3,32.3,29.83,WNW,294,2.3,4.6,96,0.00,,,0.00,0.00,VWS V14.01,2013-12-21 06:13:00,
2013-12-21 00:14:00,33.3,32.3,29.83,WNW,294,2.3,4.6,96,0.00,,,0.00,0.00,VWS V14.01,2013-12-21 06:14:00,
2013-12-21 00:15:00,33.3,32.3,29.83,WNW,294,2.3,4.6,96,0.00,,,0.00,0.00,VWS V14.01,2013-12-21 06:15:00,
2013-12-21 00:16:00,33.3,32.3,29.82,WNW,294,3.4,4.6,96,0.00,,,0.00,0.00,VWS V14.01,2013-12-21 06:16:00,
2013-12-21 00:18:00,33.3,32.3,29.82,WNW,294,4.6,5.8,96,0.00,,,0.00,0.00,VWS V14.01,2013-12-21 06:18:00,
2013-12-21 00:19:00,33.3,32.3,29.82,WNW,294,4.6,5.8,96,0.00,,,0.00,0.00,VWS V14.01,2013-12-21 06:19:00,
2013-12-21 00:20:00,33.3,32.3,29.82,WNW,294,3.4,6.9,96,0.00,,,0.00,0.00,VWS V14.01,2013-12-21 06:20:00,
2013-12-21 00:21:00,33.3,32.3,29.81,WNW,294,2.3,4.6,96,0.00,,,0.00,0.00,VWS V14.01,2013-12-21 06:21:00,
2013-12-21 00:22:00,33.2,32.2,29.82,WNW,296,5.8,6.9,96,0.00,,,0.00,0.00,VWS V14.01,2013-12-21 06:22:00,
2013-12-21 00:24:00,33.2,32.2,29.82,WNW,296,2.3,6.9,96,0.00,,,0.00,0.00,VWS V14.01,2013-12-21 06:24:00,
2013-12-21 00:27:00,33.2,32.2,29.82,WNW,296,2.3,5.8,96,0.00,,,0.00,0.00,VWS V14.01,2013-12-21 06:27:00,
2013-12-21 00:29:00,33.2,32.2,29.82,WNW,295,3.4,5.8,96,0.00,,,0.00,0.00,VWS V14.01,2013-12-21 06:29:00,
2013-12-21 00:30:00,33.2,32.2,29.82,WNW,295,3.4,5.8,96,0.00,,,0.00,0.00,VWS V14.01,2013-12-21 06:30:00,
2013-12-21 00:32:00,33.2,32.2,29.82,WNW,295,2.3,5.8,96,0.00,,,0.00,0.00,VWS V14.01,2013-12-21 06:32:00,
2013-12-21 00:33:00,33.2,32.2,29.82,WNW,295,2.3,5.8,96,0.00,,,0.00,0.00,VWS V14.01,2013-12-21 06:33:00,
2013-12-21 00:35:00,33.2,32.2,29.82,WNW,295,3.4,5.8,96,0.00,,,0.00,0.00,VWS V14.01,2013-12-21 06:35:00,
2013-12-21 00:37:00,33.2,32.2,29.82,WNW,295,1.1,2.3,96,0.00,,,0.00,0.00,VWS V14.01,2013-12-21 06:37:00,
2013-12-21 00:38:00,33.2,32.2,29.82,WNW,295,2.3,2.3,96,0.00,,,0.00,0.00,VWS V14.01,2013-12-21 06:38:00,
2013-12-21 00:39:00,33.2,32.2,29.82,WNW,295,0.0,2.3,96,0.00,,,0.00,0.00,VWS V14.01,2013-12-21 06:39:00,
2013-12-21 00:40:00,33.2,32.2,29.82,WNW,295,2.3,3.4,96,0.00,,,0.00,0.00,VWS V14.01,2013-12-21 06:40:00,
2013-12-21 00:41:00,33.1,32.1,29.82,WNW,295,3.4,3.4,96,0.00,,,0.00,0.00,VWS V14.01,2013-12-21 06:41:00,
2013-12-21 00:42:00,33.2,32.2,29.82,WNW,295,2.3,4.6,96,0.00,,,0.00,0.00,VWS V14.01,2013-12-21 06:42:00,
2013-12-21 00:43:00,33.2,32.2,29.82,WNW,295,2.3,4.6,96,0.00,,,0.00,0.00,VWS V14.01,2013-12-21 06:43:00,
2013-12-21 00:46:00,33.1,32.1,29.81,WNW,295,1.1,3.4,96,0.00,,,0.00,0.00,VWS V14.01,2013-12-21 06:46:00,
2013-12-21 00:47:00,33.1,32.1,29.81,WNW,295,3.4,3.4,96,0.00,,,0.00,0.00,VWS V14.01,2013-12-21 06:47:00,
2013-12-21 00:48:00,33.1,32.1,29.81,WNW,295,3.4,3.4,96,0.00,,,0.00,0.00,VWS V14.01,2013-12-21 06:48:00,
2013-12-21 00:50:00,33.1,32.1,29.81,WNW,295,4.6,4.6,96,0.00,,,0.00,0.00,VWS V14.01,2013-12-21 06:50:00,
2013-12-21 00:51:00,33.1,32.1,29.81,WNW,295,2.3,3.4,96,0.00,,,0.00,0.00,VWS V14.01,2013-12-21 06:51:00,
2013-12-21 00:52:00,33.1,32.1,29.81,WNW,295,1.1,3.4,96,0.00,,,0.00,0.00,VWS V14.01,2013-12-21 06:52:00,
2013-12-21 00:53:00,33.1,32.1,29.81,WNW,295,1.1,3.4,96,0.00,,,0.00,0.00,VWS V14.01,2013-12-21 06:53:00,
2013-12-21 00:54:00,33.1,32.1,29.81,WNW,295,4.6,4.6,96,0.00,,,0.00,0.00,VWS V14.01,2013-12-21 06:54:00,
2013-12-21 00:56:00,33.1,32.1,29.82,WNW,295,3.4,5.8,96,0.00,,,0.00,0.00,VWS V14.01,2013-12-21 06:56:00,
2013-12-21 00:57:00,33.1,32.1,29.82,WNW,295,4.6,5.8,96,0.00,,,0.00,0.00,VWS V14.01,2013-12-21 06:57:00,
2013-12-21 00:58:00,33.1,32.1,29.82,WNW,295,3.4,5.8,96,0.00,,,0.00,0.00,VWS V14.01,2013-12-21 06:58:00,
2013-12-21 00:59:00,33.0,32.0,29.82,WNW,295,6.9,6.9,96,0.00,,,0.00,0.00,VWS V14.01,2013-12-21 06:59:00,
2013-12-21 01:01:00,33.0,32.0,29.83,WNW,294,2.3,4.6,96,0.00,,,0.00,0.00,VWS V14.01,2013-12-21 07:01:00,
2013-12-21 01:02:00,33.0,32.0,29.82,WNW,294,3.4,4.6,96,0.00,,,0.00,0.00,VWS V14.01,2013-12-21 07:02:00,
2013-12-21 01:03:00,33.1,32.1,29.82,WNW,290,3.4,6.9,96,0.00,,,0.00,0.00,VWS V14.01,2013-12-21 07:03:00,
2013-12-21 01:04:00,33.0,32.0,29.83,WNW,290,2.3,6.9,96,0.00,,,0.00,0.00,VWS V14.01,2013-12-21 07:04:00,
2013-12-21 01:06:00,33.0,32.0,29.83,WNW,289,4.6,4.6,96,0.00,,,0.00,0.00,VWS V14.01,2013-12-21 07:06:00,
2013-12-21 01:07:00,33.0,32.0,29.83,WNW,288,5.8,5.8,96,0.00,,,0.00,0.00,VWS V14.01,2013-12-21 07:07:00,
2013-12-21 01:08:00,33.0,32.0,29.83,WNW,287,9.2,9.2,96,0.00,,,0.00,0.00,VWS V14.01,2013-12-21 07:08:00,
2013-12-21 01:09:00,33.0,32.0,29.83,WNW,283,6.9,9.2,96,0.00,,,0.00,0.00,VWS V14.01,2013-12-21 07:09:00,
2013-12-21 01:11:00,33.0,32.0,29.83,West,281,6.9,6.9,96,0.00,,,0.00,0.00,VWS V14.01,2013-12-21 07:11:00,
2013-12-21 01:13:00,33.0,32.0,29.83,WNW,289,4.6,8.1,96,0.00,,,0.00,0.00,VWS V14.01,2013-12-21 07:13:00,
2013-12-21 01:14:00,33.0,32.0,29.84,WNW,290,4.6,8.1,96,0.00,,,0.00,0.00,VWS V14.01,2013-12-21 07:14:00,
2013-12-21 01:15:00,33.0,32.0,29.84,WNW,289,4.6,8.1,96,0.00,,,0.00,0.00,VWS V14.01,2013-12-21 07:15:00,
2013-12-21 01:16:00,33.0,32.0,29.83,WNW,289,3.4,4.6,96,0.00,,,0.00,0.00,VWS V14.01,2013-12-21 07:16:00,
2013-12-21 01:18:00,33.0,32.0,29.83,WNW,289,3.4,4.6,96,0.00,,,0.00,0.00,VWS V14.01,2013-12-21 07:18:00,
2013-12-21 01:20:00,33.0,32.0,29.82,WNW,289,2.3,4.6,96,0.00,,,0.00,0.00,VWS V14.01,2013-12-21 07:20:00,
2013-12-21 01:21:00,33.0,32.0,29.82,WNW,289,4.6,4.6,96,0.00,,,0.00,0.00,VWS V14.01,2013-12-21 07:21:00,
2013-12-21 01:22:00,33.0,32.0,29.82,WNW,289,3.4,4.6,96,0.00,,,0.00,0.00,VWS V14.01,2013-12-21 07:22:00,
2013-12-21 01:24:00,32.9,31.9,29.81,WNW,290,5.8,5.8,96,0.00,,,0.00,0.00,VWS V14.01,2013-12-21 07:24:00,
2013-12-21 01:25:00,32.9,31.9,29.81,WNW,288,6.9,6.9,96,0.00,,,0.00,0.00,VWS V14.01,2013-12-21 07:25:00,
2013-12-21 01:26:00,32.9,31.9,29.81,WNW,294,9.2,9.2,96,0.00,,,0.00,0.00,VWS V14.01,2013-12-21 07:26:00,
2013-12-21 01:27:00,32.9,31.9,29.81,WNW,296,5.8,9.2,96,0.00,,,0.00,0.00,VWS V14.01,2013-12-21 07:27:00,
2013-12-21 01:29:00,32.9,31.9,29.81,WNW,298,5.8,9.2,96,0.00,,,0.00,0.00,VWS V14.01,2013-12-21 07:29:00,
2013-12-21 01:30:00,32.9,31.9,29.81,WNW,298,5.8,9.2,96,0.00,,,0.00,0.00,VWS V14.01,2013-12-21 07:30:00,
2013-12-21 01:31:00,32.9,31.9,29.82,WNW,296,5.8,8.1,96,0.00,,,0.00,0.00,VWS V14.01,2013-12-21 07:31:00,
2013-12-21 01:33:00,32.8,31.8,29.82,WNW,296,3.4,8.1,96,0.00,,,0.00,0.00,VWS V14.01,2013-12-21 07:33:00,
2013-12-21 01:35:00,32.8,31.8,29.82,WNW,302,5.8,10.3,96,0.00,,,0.00,0.00,VWS V14.01,2013-12-21 07:35:00,
2013-12-21 01:36:00,32.8,31.8,29.83,WNW,302,5.8,5.8,96,0.00,,,0.00,0.00,VWS V14.01,2013-12-21 07:36:00,
2013-12-21 01:37:00,32.7,31.7,29.83,NW,306,4.6,9.2,96,0.00,,,0.00,0.00,VWS V14.01,2013-12-21 07:37:00,
2013-12-21 01:38:00,32.7,31.7,29.83,NW,306,3.4,9.2,96,0.00,,,0.00,0.00,VWS V14.01,2013-12-21 07:38:00,
2013-12-21 01:41:00,32.7,31.7,29.82,WNW,292,5.8,5.8,96,0.00,,,0.00,0.00,VWS V14.01,2013-12-21 07:41:00,
2013-12-21 01:43:00,32.6,31.6,29.82,NW,305,5.8,6.9,96,0.00,,,0.00,0.00,VWS V14.01,2013-12-21 07:43:00,
2013-12-21 01:46:00,32.6,31.6,29.82,WNW,298,3.4,6.9,96,0.00,,,0.00,0.00,VWS V14.01,2013-12-21 07:46:00,
2013-12-21 01:47:00,32.6,31.6,29.82,WNW,299,6.9,6.9,96,0.00,,,0.00,0.00,VWS V14.01,2013-12-21 07:47:00,
2013-12-21 01:48:00,32.6,31.6,29.82,WNW,299,3.4,6.9,96,0.00,,,0.00,0.00,VWS V14.01,2013-12-21 07:48:00,
2013-12-21 01:49:00,32.6,31.6,29.83,WNW,302,6.9,8.1,96,0.00,,,0.00,0.00,VWS V14.01,2013-12-21 07:49:00,
2013-12-21 01:52:00,32.5,31.5,29.83,WNW,302,5.8,6.9,96,0.00,,,0.00,0.00,VWS V14.01,2013-12-21 07:52:00,
2013-12-21 01:53:00,32.5,31.5,29.83,WNW,302,4.6,8.1,96,0.00,,,0.00,0.00,VWS V14.01,2013-12-21 07:53:00,
2013-12-21 01:54:00,32.4,31.4,29.83,NW,311,4.6,8.1,96,0.00,,,0.00,0.00,VWS V14.01,2013-12-21 07:54:00,
2013-12-21 01:57:00,32.4,31.4,29.83,WNW,289,6.9,10.3,96,0.00,,,0.00,0.00,VWS V14.01,2013-12-21 07:57:00,
2013-12-21 01:58:00,32.4,31.4,29.83,WNW,296,8.1,10.3,96,0.00,,,0.00,0.00,VWS V14.01,2013-12-21 07:58:00,
2013-12-21 01:59:00,32.4,31.4,29.83,WNW,296,5.8,10.3,96,0.00,,,0.00,0.00,VWS V14.01,2013-12-21 07:59:00,
2013-12-21 02:00:00,32.3,31.3,29.83,WNW,297,3.4,10.3,96,0.00,,,0.00,0.00,VWS V14.01,2013-12-21 08:00:00,
2013-12-21 02:02:00,32.3,31.3,29.83,WNW,297,2.3,5.8,96,0.00,,,0.00,0.00,VWS V14.01,2013-12-21 08:02:00,
2013-12-21 02:03:00,32.3,31.3,29.83,WNW,297,3.4,5.8,96,0.00,,,0.00,0.00,VWS V14.01,2013-12-21 08:03:00,
2013-12-21 02:04:00,32.3,31.3,29.83,WNW,290,5.8,9.2,96,0.00,,,0.00,0.00,VWS V14.01,2013-12-21 08:04:00,
2013-12-21 02:05:00,32.3,31.3,29.83,WNW,296,4.6,9.2,96,0.00,,,0.00,0.00,VWS V14.01,2013-12-21 08:05:00,
2013-12-21 02:07:00,32.2,31.2,29.83,WNW,296,2.3,6.9,96,0.00,,,0.00,0.00,VWS V14.01,2013-12-21 08:07:00,
2013-12-21 02:08:00,32.2,31.2,29.83,WNW,296,2.3,6.9,96,0.00,,,0.00,0.00,VWS V14.01,2013-12-21 08:08:00,
2013-12-21 02:09:00,32.2,31.2,29.83,WNW,296,3.4,6.9,96,0.00,,,0.00,0.00,VWS V14.01,2013-12-21 08:09:00,
2013-12-21 02:10:00,32.2,31.2,29.83,WNW,296,3.4,6.9,96,0.00,,,0.00,0.00,VWS V14.01,2013-12-21 08:10:00,
2013-12-21 02:13:00,32.2,31.2,29.84,WNW,296,5.8,5.8,96,0.00,,,0.00,0.00,VWS V14.01,2013-12-21 08:13:00,
2013-12-21 02:14:00,32.2,31.2,29.84,WNW,296,2.3,5.8,96,0.00,,,0.00,0.00,VWS V14.01,2013-12-21 08:14:00,
2013-12-21 02:15:00,32.2,31.2,29.84,WNW,296,3.4,5.8,96,0.00,,,0.00,0.00,VWS V14.01,2013-12-21 08:15:00,
2013-12-21 02:20:00,32.2,31.2,29.86,WNW,283,3.4,10.3,96,0.00,,,0.00,0.00,VWS V14.01,2013-12-21 08:20:00,
2013-12-21 02:21:00,32.2,31.2,29.86,WNW,282,6.9,6.9,96,0.00,,,0.00,0.00,VWS V14.01,2013-12-21 08:21:00,
2013-12-21 02:25:00,32.2,31.2,29.87,West,273,6.9,10.3,96,0.00,,,0.00,0.00,VWS V14.01,2013-12-21 08:25:00,
2013-12-21 02:26:00,32.2,31.2,29.87,West,274,8.1,8.1,96,0.00,,,0.00,0.00,VWS V14.01,2013-12-21 08:26:00,
2013-12-21 02:27:00,32.2,31.2,29.87,West,273,6.9,8.1,96,0.00,,,0.00,0.00,VWS V14.01,2013-12-21 08:27:00,
2013-12-21 02:28:00,32.2,31.2,29.87,West,273,4.6,8.1,96,0.00,,,0.00,0.00,VWS V14.01,2013-12-21 08:28:00,
2013-12-21 02:29:00,32.2,31.2,29.87,West,273,6.9,8.1,96,0.00,,,0.00,0.00,VWS V14.01,2013-12-21 08:29:00,
2013-12-21 02:30:00,32.2,31.2,29.87,West,274,6.9,6.9,96,0.00,,,0.00,0.00,VWS V14.01,2013-12-21 08:30:00,
2013-12-21 02:32:00,32.2,31.2,29.87,West,275,2.3,8.1,96,0.00,,,0.00,0.00,VWS V14.01,2013-12-21 08:32:00,
2013-12-21 02:33:00,32.2,31.2,29.86,West,277,5.8,8.1,96,0.00,,,0.00,0.00,VWS V14.01,2013-12-21 08:33:00,
2013-12-21 02:35:00,32.2,31.2,29.86,WNW,290,2.3,8.1,96,0.00,,,0.00,0.00,VWS V14.01,2013-12-21 08:35:00,
2013-12-21 02:36:00,32.2,31.2,29.86,WNW,290,3.4,4.6,96,0.00,,,0.00,0.00,VWS V14.01,2013-12-21 08:36:00,
2013-12-21 02:37:00,32.2,31.2,29.86,WNW,290,1.1,4.6,96,0.00,,,0.00,0.00,VWS V14.01,2013-12-21 08:37:00,
2013-12-21 02:38:00,32.1,31.1,29.86,WNW,290,3.4,4.6,96,0.00,,,0.00,0.00,VWS V14.01,2013-12-21 08:38:00,
2013-12-21 02:39:00,32.2,31.2,29.86,WNW,290,3.4,4.6,96,0.00,,,0.00,0.00,VWS V14.01,2013-12-21 08:39:00,
2013-12-21 02:41:00,32.1,31.1,29.87,West,279,2.3,5.8,96,0.00,,,0.00,0.00,VWS V14.01,2013-12-21 08:41:00,
2013-12-21 02:42:00,32.1,31.1,29.87,West,279,3.4,5.8,96,0.00,,,0.00,0.00,VWS V14.01,2013-12-21 08:42:00,
2013-12-21 02:43:00,32.1,31.1,29.87,West,281,6.9,6.9,96,0.00,,,0.00,0.00,VWS V14.01,2013-12-21 08:43:00,
2013-12-21 02:45:00,32.1,31.1,29.87,WNW,285,5.8,6.9,96,0.00,,,0.00,0.00,VWS V14.01,2013-12-21 08:45:00,
2013-12-21 02:47:00,32.1,31.1,29.87,WNW,285,3.4,5.8,96,0.00,,,0.00,0.00,VWS V14.01,2013-12-21 08:47:00,
2013-12-21 02:48:00,32.1,31.1,29.87,WNW,282,4.6,6.9,96,0.00,,,0.00,0.00,VWS V14.01,2013-12-21 08:48:00,
2013-12-21 02:50:00,32.1,31.1,29.86,West,281,5.8,6.9,96,0.00,,,0.00,0.00,VWS V14.01,2013-12-21 08:50:00,
2013-12-21 02:53:00,32.1,31.1,29.87,WNW,289,5.8,6.9,96,0.00,,,0.00,0.00,VWS V14.01,2013-12-21 08:53:00,
2013-12-21 02:54:00,32.1,31.1,29.87,WNW,290,6.9,6.9,96,0.00,,,0.00,0.00,VWS V14.01,2013-12-21 08:54:00,
2013-12-21 02:55:00,32.1,31.1,29.86,West,277,3.4,9.2,96,0.00,,,0.00,0.00,VWS V14.01,2013-12-21 08:55:00,
2013-12-21 02:56:00,32.1,31.1,29.87,West,281,4.6,8.1,96,0.00,,,0.00,0.00,VWS V14.01,2013-12-21 08:56:00,
2013-12-21 02:58:00,32.1,31.1,29.87,WNW,288,3.4,8.1,96,0.00,,,0.00,0.00,VWS V14.01,2013-12-21 08:58:00,
2013-12-21 02:59:00,32.0,31.0,29.87,WNW,288,3.4,8.1,96,0.00,,,0.00,0.00,VWS V14.01,2013-12-21 08:59:00,
2013-12-21 03:00:00,32.0,31.0,29.87,WNW,288,4.6,8.1,96,0.00,,,0.00,0.00,VWS V14.01,2013-12-21 09:00:00,
2013-12-21 03:01:00,32.0,31.0,29.87,WNW,287,2.3,4.6,96,0.00,,,0.00,0.00,VWS V14.01,2013-12-21 09:01:00,
2013-12-21 03:03:00,32.0,31.0,29.87,West,281,5.8,8.1,96,0.00,,,0.00,0.00,VWS V14.01,2013-12-21 09:03:00,
2013-12-21 03:05:00,32.0,31.0,29.87,WNW,282,5.8,8.1,96,0.00,,,0.00,0.00,VWS V14.01,2013-12-21 09:05:00,
2013-12-21 03:08:00,32.0,31.0,29.86,West,281,4.6,6.9,96,0.00,,,0.00,0.00,VWS V14.01,2013-12-21 09:08:00,
2013-12-21 03:09:00,32.0,31.0,29.86,WNW,282,3.4,6.9,96,0.00,,,0.00,0.00,VWS V14.01,2013-12-21 09:09:00,
2013-12-21 03:10:00,32.0,31.0,29.86,WNW,282,3.4,6.9,96,0.00,,,0.00,0.00,VWS V14.01,2013-12-21 09:10:00,
2013-12-21 03:11:00,32.0,31.0,29.86,West,279,4.6,6.9,96,0.00,,,0.00,0.00,VWS V14.01,2013-12-21 09:11:00,
2013-12-21 03:13:00,32.0,31.0,29.85,West,276,4.6,6.9,96,0.00,,,0.00,0.00,VWS V14.01,2013-12-21 09:13:00,
2013-12-21 03:15:00,31.9,30.9,29.85,WNW,288,4.6,6.9,96,0.00,,,0.00,0.00,VWS V14.01,2013-12-21 09:15:00,
2013-12-21 03:16:00,31.9,30.9,29.85,WNW,291,5.8,8.1,96,0.00,,,0.00,0.00,VWS V14.01,2013-12-21 09:16:00,
2013-12-21 03:18:00,31.9,30.9,29.85,WNW,290,2.3,8.1,96,0.00,,,0.00,0.00,VWS V14.01,2013-12-21 09:18:00,
2013-12-21 03:20:00,31.9,30.9,29.85,WNW,290,3.4,6.9,96,0.00,,,0.00,0.00,VWS V14.01,2013-12-21 09:20:00,
2013-12-21 03:21:00,31.9,30.9,29.85,WNW,290,3.4,6.9,96,0.00,,,0.00,0.00,VWS V14.01,2013-12-21 09:21:00,
2013-12-21 03:24:00,31.9,30.9,29.84,NW,310,5.8,9.2,96,0.00,,,0.00,0.00,VWS V14.01,2013-12-21 09:24:00,
2013-12-21 03:26:00,31.9,30.9,29.84,NW,310,3.4,4.6,96,0.00,,,0.00,0.00,VWS V14.01,2013-12-21 09:26:00,
2013-12-21 03:27:00,31.9,30.9,29.84,NW,310,3.4,4.6,96,0.00,,,0.00,0.00,VWS V14.01,2013-12-21 09:27:00,
2013-12-21 03:29:00,31.9,30.9,29.85,WNW,298,5.8,9.2,96,0.00,,,0.00,0.00,VWS V14.01,2013-12-21 09:29:00,
2013-12-21 03:30:00,31.8,30.8,29.85,WNW,297,2.3,9.2,96,0.00,,,0.00,0.00,VWS V14.01,2013-12-21 09:30:00,
2013-12-21 03:31:00,31.8,30.8,29.84,WNW,297,2.3,4.6,96,0.00,,,0.00,0.00,VWS V14.01,2013-12-21 09:31:00,
2013-12-21 03:32:00,31.8,30.8,29.84,WNW,297,1.1,4.6,96,0.00,,,0.00,0.00,VWS V14.01,2013-12-21 09:32:00,
2013-12-21 03:35:00,31.7,30.7,29.83,NW,304,3.4,8.1,96,0.00,,,0.00,0.00,VWS V14.01,2013-12-21 09:35:00,
2013-12-21 03:37:00,31.7,30.7,29.84,NW,304,2.3,6.9,96,0.00,,,0.00,0.00,VWS V14.01,2013-12-21 09:37:00,
2013-12-21 03:38:00,31.7,30.7,29.84,NW,304,3.4,6.9,96,0.00,,,0.00,0.00,VWS V14.01,2013-12-21 09:38:00,
2013-12-21 03:42:00,31.7,30.7,29.83,NW,304,2.3,5.8,96,0.00,,,0.00,0.00,VWS V14.01,2013-12-21 09:42:00,
2013-12-21 03:43:00,31.7,30.7,29.83,NW,304,1.1,5.8,96,0.00,,,0.00,0.00,VWS V14.01,2013-12-21 09:43:00,
2013-12-21 03:44:00,31.7,30.7,29.83,NW,304,1.1,5.8,96,0.00,,,0.00,0.00,VWS V14.01,2013-12-21 09:44:00,
2013-12-21 03:47:00,31.7,30.7,29.83,NW,304,4.6,5.8,96,0.00,,,0.00,0.00,VWS V14.01,2013-12-21 09:47:00,
2013-12-21 03:48:00,31.7,30.7,29.83,NW,304,3.4,5.8,96,0.00,,,0.00,0.00,VWS V14.01,2013-12-21 09:48:00,
2013-12-21 03:49:00,31.6,30.6,29.82,NW,304,2.3,5.8,96,0.00,,,0.00,0.00,VWS V14.01,2013-12-21 09:49:00,
2013-12-21 03:50:00,31.6,30.6,29.82,NW,307,4.6,5.8,96,0.00,,,0.00,0.00,VWS V14.01,2013-12-21 09:50:00,
2013-12-21 03:53:00,31.6,30.6,29.83,NW,306,4.6,6.9,96,0.00,,,0.00,0.00,VWS V14.01,2013-12-21 09:53:00,
2013-12-21 03:54:00,31.6,30.6,29.84,NW,306,5.8,6.9,96,0.00,,,0.00,0.00,VWS V14.01,2013-12-21 09:54:00,
2013-12-21 03:55:00,31.6,30.6,29.84,WNW,302,5.8,6.9,96,0.00,,,0.00,0.00,VWS V14.01,2013-12-21 09:55:00,
2013-12-21 03:58:00,31.6,30.6,29.83,WNW,303,4.6,9.2,96,0.00,,,0.00,0.00,VWS V14.01,2013-12-21 09:58:00,
2013-12-21 03:59:00,31.6,30.6,29.83,WNW,303,3.4,9.2,96,0.00,,,0.00,0.00,VWS V14.01,2013-12-21 09:59:00,
2013-12-21 04:00:00,31.6,30.6,29.83,WNW,303,2.3,9.2,96,0.00,,,0.00,0.00,VWS V14.01,2013-12-21 10:00:00,
2013-12-21 04:04:00,31.5,30.5,29.83,NW,310,2.3,6.9,96,0.00,,,0.00,0.00,VWS V14.01,2013-12-21 10:04:00,
2013-12-21 04:05:00,31.5,30.5,29.83,NW,310,3.4,6.9,96,0.00,,,0.00,0.00,VWS V14.01,2013-12-21 10:05:00,
2013-12-21 04:10:00,31.5,30.5,29.85,NW,304,3.4,8.1,96,0.00,,,0.00,0.00,VWS V14.01,2013-12-21 10:10:00,
2013-12-21 04:11:00,31.5,30.5,29.85,NW,304,3.4,4.6,96,0.00,,,0.00,0.00,VWS V14.01,2013-12-21 10:11:00,
2013-12-21 04:12:00,31.4,30.4,29.85,WNW,300,4.6,6.9,96,0.00,,,0.00,0.00,VWS V14.01,2013-12-21 10:12:00,
2013-12-21 04:13:00,31.4,30.4,29.86,WNW,300,5.8,8.1,96,0.00,,,0.00,0.00,VWS V14.01,2013-12-21 10:13:00,
2013-12-21 04:16:00,31.4,30.4,29.86,NW,304,3.4,5.8,96,0.00,,,0.00,0.00,VWS V14.01,2013-12-21 10:16:00,
2013-12-21 04:17:00,31.4,30.4,29.87,WNW,292,5.8,9.2,96,0.00,,,0.00,0.00,VWS V14.01,2013-12-21 10:17:00,
2013-12-21 04:18:00,31.4,30.4,29.87,West,280,5.8,9.2,96,0.00,,,0.00,0.00,VWS V14.01,2013-12-21 10:18:00,
2013-12-21 04:20:00,31.4,30.4,29.86,NW,314,3.4,9.2,96,0.00,,,0.00,0.00,VWS V14.01,2013-12-21 10:20:00,
2013-12-21 04:22:00,31.4,30.4,29.86,NW,305,2.3,5.8,96,0.00,,,0.00,0.00,VWS V14.01,2013-12-21 10:22:00,
2013-12-21 04:23:00,31.4,30.4,29.85,NW,305,2.3,5.8,96,0.00,,,0.00,0.00,VWS V14.01,2013-12-21 10:23:00,
2013-12-21 04:24:00,31.4,30.4,29.85,NW,304,2.3,5.8,96,0.00,,,0.00,0.00,VWS V14.01,2013-12-21 10:24:00,
2013-12-21 04:25:00,31.4,30.4,29.85,NW,304,5.8,5.8,96,0.00,,,0.00,0.00,VWS V14.01,2013-12-21 10:25:00,
2013-12-21 04:27:00,31.4,30.4,29.85,NW,304,1.1,5.8,96,0.00,,,0.00,0.00,VWS V14.01,2013-12-21 10:27:00,
2013-12-21 04:28:00,31.4,30.4,29.84,NW,307,5.8,5.8,96,0.00,,,0.00,0.00,VWS V14.01,2013-12-21 10:28:00,
2013-12-21 04:31:00,31.3,30.3,29.84,NW,311,3.4,5.8,96,0.00,,,0.00,0.00,VWS V14.01,2013-12-21 10:31:00,
2013-12-21 04:33:00,31.3,30.3,29.84,NW,311,4.6,6.9,96,0.00,,,0.00,0.00,VWS V14.01,2013-12-21 10:33:00,
2013-12-21 04:37:00,31.2,30.2,29.83,NW,310,1.1,3.4,96,0.00,,,0.00,0.00,VWS V14.01,2013-12-21 10:37:00,
2013-12-21 04:38:00,31.2,30.2,29.83,NW,311,5.8,5.8,96,0.00,,,0.00,0.00,VWS V14.01,2013-12-21 10:38:00,
2013-12-21 04:39:00,31.2,30.2,29.83,NW,311,2.3,5.8,96,0.00,,,0.00,0.00,VWS V14.01,2013-12-21 10:39:00,
2013-12-21 04:40:00,31.2,30.2,29.83,NW,311,2.3,5.8,96,0.00,,,0.00,0.00,VWS V14.01,2013-12-21 10:40:00,
2013-12-21 04:42:00,31.2,30.2,29.83,NW,311,1.1,3.4,96,0.00,,,0.00,0.00,VWS V14.01,2013-12-21 10:42:00,
2013-12-21 04:43:00,31.2,30.2,29.82,NW,311,4.6,5.8,96,0.00,,,0.00,0.00,VWS V14.01,2013-12-21 10:43:00,
2013-12-21 04:44:00,31.2,30.2,29.82,NW,311,3.4,5.8,96,0.00,,,0.00,0.00,VWS V14.01,2013-12-21 10:44:00,
2013-12-21 04:45:00,31.1,30.1,29.82,NW,311,3.4,5.8,96,0.00,,,0.00,0.00,VWS V14.01,2013-12-21 10:45:00,
2013-12-21 04:46:00,31.1,30.1,29.82,NW,311,5.8,5.8,96,0.00,,,0.00,0.00,VWS V14.01,2013-12-21 10:46:00,
2013-12-21 04:47:00,31.1,30.1,29.82,NW,311,3.4,6.9,96,0.00,,,0.00,0.00,VWS V14.01,2013-12-21 10:47:00,
2013-12-21 04:48:00,31.1,30.1,29.82,NW,311,3.4,6.9,96,0.00,,,0.00,0.00,VWS V14.01,2013-12-21 10:48:00,
2013-12-21 04:49:00,31.1,30.1,29.82,NW,311,2.3,6.9,96,0.00,,,0.00,0.00,VWS V14.01,2013-12-21 10:49:00,
2013-12-21 04:50:00,31.0,30.0,29.82,NW,311,5.8,6.9,96,0.00,,,0.00,0.00,VWS V14.01,2013-12-21 10:50:00,
2013-12-21 04:51:00,31.0,30.0,29.82,NW,305,5.8,5.8,96,0.00,,,0.00,0.00,VWS V14.01,2013-12-21 10:51:00,
2013-12-21 04:52:00,31.0,30.0,29.82,NW,305,5.8,6.9,96,0.00,,,0.00,0.00,VWS V14.01,2013-12-21 10:52:00,
2013-12-21 04:53:00,31.0,30.0,29.83,NW,308,6.9,6.9,96,0.00,,,0.00,0.00,VWS V14.01,2013-12-21 10:53:00,
2013-12-21 04:54:00,31.0,30.0,29.83,NW,308,4.6,6.9,96,0.00,,,0.00,0.00,VWS V14.01,2013-12-21 10:54:00,
2013-12-21 04:55:00,30.9,29.9,29.82,NW,311,4.6,6.9,96,0.00,,,0.00,0.00,VWS V14.01,2013-12-21 10:55:00,
2013-12-21 04:56:00,30.9,29.9,29.82,NW,311,3.4,5.8,96,0.00,,,0.00,0.00,VWS V14.01,2013-12-21 10:56:00,
2013-12-21 04:57:00,30.9,29.9,29.82,NW,311,1.1,5.8,96,0.00,,,0.00,0.00,VWS V14.01,2013-12-21 10:57:00,
2013-12-21 04:59:00,30.9,29.9,29.81,NW,311,0.0,5.8,96,0.00,,,0.00,0.00,VWS V14.01,2013-12-21 10:59:00,
2013-12-21 05:00:00,30.9,29.9,29.81,NW,311,2.3,5.8,96,0.00,,,0.00,0.00,VWS V14.01,2013-12-21 11:00:00,
2013-12-21 05:01:00,30.8,29.8,29.81,NW,314,3.4,6.9,96,0.00,,,0.00,0.00,VWS V14.01,2013-12-21 11:01:00,
2013-12-21 05:02:00,30.9,29.9,29.81,NW,314,2.3,6.9,96,0.00,,,0.00,0.00,VWS V14.01,2013-12-21 11:02:00,
2013-12-21 05:05:00,30.8,29.8,29.81,NW,318,4.6,6.9,96,0.00,,,0.00,0.00,VWS V14.01,2013-12-21 11:05:00,
2013-12-21 05:06:00,30.8,29.8,29.81,NW,318,4.6,5.8,96,0.00,,,0.00,0.00,VWS V14.01,2013-12-21 11:06:00,
2013-12-21 05:08:00,30.8,29.8,29.82,NW,311,4.6,6.9,96,0.00,,,0.00,0.00,VWS V14.01,2013-12-21 11:08:00,
2013-12-21 05:10:00,30.8,29.8,29.82,NW,313,5.8,6.9,96,0.00,,,0.00,0.00,VWS V14.01,2013-12-21 11:10:00,
2013-12-21 05:11:00,30.8,29.8,29.82,NW,309,5.8,6.9,96,0.00,,,0.00,0.00,VWS V14.01,2013-12-21 11:11:00,
2013-12-21 05:12:00,30.8,29.8,29.82,NW,309,3.4,6.9,96,0.00,,,0.00,0.00,VWS V14.01,2013-12-21 11:12:00,
2013-12-21 05:13:00,30.8,29.8,29.82,NW,309,4.6,6.9,96,0.00,,,0.00,0.00,VWS V14.01,2013-12-21 11:13:00,
2013-12-21 05:14:00,30.8,29.8,29.82,NW,309,1.1,6.9,96,0.00,,,0.00,0.00,VWS V14.01,2013-12-21 11:14:00,
2013-12-21 05:15:00,30.8,29.8,29.82,NW,309,3.4,6.9,96,0.00,,,0.00,0.00,VWS V14.01,2013-12-21 11:15:00,
2013-12-21 05:16:00,30.8,29.8,29.81,NW,309,3.4,4.6,96,0.00,,,0.00,0.00,VWS V14.01,2013-12-21 11:16:00,
2013-12-21 05:18:00,30.8,29.8,29.81,NW,309,5.8,5.8,96,0.00,,,0.00,0.00,VWS V14.01,2013-12-21 11:18:00,
2013-12-21 05:19:00,30.8,29.8,29.82,WNW,298,5.8,8.1,96,0.00,,,0.00,0.00,VWS V14.01,2013-12-21 11:19:00,
2013-12-21 05:20:00,30.7,29.7,29.82,WNW,298,3.4,8.1,96,0.00,,,0.00,0.00,VWS V14.01,2013-12-21 11:20:00,
2013-12-21 05:22:00,30.7,29.7,29.83,WNW,298,4.6,5.8,96,0.00,,,0.00,0.00,VWS V14.01,2013-12-21 11:22:00,
2013-12-21 05:24:00,30.7,29.7,29.83,WNW,298,1.1,5.8,96,0.00,,,0.00,0.00,VWS V14.01,2013-12-21 11:24:00,
2013-12-21 05:25:00,30.7,29.7,29.83,WNW,298,3.4,5.8,96,0.00,,,0.00,0.00,VWS V14.01,2013-12-21 11:25:00,
2013-12-21 05:27:00,30.7,29.7,29.84,WNW,298,4.6,5.8,96,0.00,,,0.00,0.00,VWS V14.01,2013-12-21 11:27:00,
2013-12-21 05:29:00,30.7,29.7,29.85,WNW,298,2.3,6.9,96,0.00,,,0.00,0.00,VWS V14.01,2013-12-21 11:29:00,
2013-12-21 05:30:00,30.7,29.7,29.85,WNW,294,4.6,8.1,96,0.00,,,0.00,0.00,VWS V14.01,2013-12-21 11:30:00,
2013-12-21 05:32:00,30.6,29.6,29.85,WNW,294,4.6,5.8,96,0.00,,,0.00,0.00,VWS V14.01,2013-12-21 11:32:00,
2013-12-21 05:33:00,30.6,29.6,29.85,WNW,294,3.4,5.8,96,0.00,,,0.00,0.00,VWS V14.01,2013-12-21 11:33:00,
2013-12-21 05:34:00,30.6,29.6,29.85,WNW,294,3.4,5.8,96,0.00,,,0.00,0.00,VWS V14.01,2013-12-21 11:34:00,
2013-12-21 05:35:00,30.6,29.6,29.85,WNW,294,3.4,6.9,96,0.00,,,0.00,0.00,VWS V14.01,2013-12-21 11:35:00,
2013-12-21 05:38:00,30.6,29.6,29.85,WNW,294,2.3,8.1,96,0.00,,,0.00,0.00,VWS V14.01,2013-12-21 11:38:00,
2013-12-21 05:39:00,30.6,29.6,29.85,WNW,294,1.1,8.1,96,0.00,,,0.00,0.00,VWS V14.01,2013-12-21 11:39:00,
2013-12-21 05:40:00,30.6,29.6,29.85,WNW,294,0.0,8.1,96,0.00,,,0.00,0.00,VWS V14.01,2013-12-21 11:40:00,
2013-12-21 05:42:00,30.6,29.6,29.85,WNW,294,5.8,5.8,96,0.00,,,0.00,0.00,VWS V14.01,2013-12-21 11:42:00,
2013-12-21 05:43:00,30.6,29.6,29.86,WNW,294,2.3,5.8,96,0.00,,,0.00,0.00,VWS V14.01,2013-12-21 11:43:00,
2013-12-21 05:44:00,30.6,29.6,29.86,WNW,294,1.1,5.8,96,0.00,,,0.00,0.00,VWS V14.01,2013-12-21 11:44:00,
2013-12-21 05:45:00,30.6,29.6,29.86,WNW,296,6.9,6.9,96,0.00,,,0.00,0.00,VWS V14.01,2013-12-21 11:45:00,
2013-12-21 05:46:00,30.6,29.6,29.86,WNW,298,5.8,6.9,96,0.00,,,0.00,0.00,VWS V14.01,2013-12-21 11:46:00,
2013-12-21 05:47:00,30.6,29.6,29.86,WNW,298,5.8,6.9,96,0.00,,,0.00,0.00,VWS V14.01,2013-12-21 11:47:00,
2013-12-21 05:48:00,30.6,29.6,29.86,WNW,298,3.4,6.9,96,0.00,,,0.00,0.00,VWS V14.01,2013-12-21 11:48:00,
2013-12-21 05:49:00,30.6,29.6,29.86,WNW,297,4.6,8.1,96,0.00,,,0.00,0.00,VWS V14.01,2013-12-21 11:49:00,
2013-12-21 05:51:00,30.6,29.6,29.86,WNW,299,3.4,6.9,96,0.00,,,0.00,0.00,VWS V14.01,2013-12-21 11:51:00,
2013-12-21 05:52:00,30.6,29.6,29.86,WNW,301,6.9,8.1,96,0.00,,,0.00,0.00,VWS V14.01,2013-12-21 11:52:00,
2013-12-21 05:54:00,30.6,29.6,29.86,WNW,299,6.9,9.2,96,0.00,,,0.00,0.00,VWS V14.01,2013-12-21 11:54:00,
2013-12-21 05:55:00,30.6,29.6,29.86,WNW,299,3.4,9.2,96,0.00,,,0.00,0.00,VWS V14.01,2013-12-21 11:55:00,
2013-12-21 05:56:00,30.6,29.6,29.86,WNW,299,2.3,4.6,96,0.00,,,0.00,0.00,VWS V14.01,2013-12-21 11:56:00,
2013-12-21 06:00:00,30.5,29.5,29.86,NW,305,4.6,9.2,96,0.00,,,0.00,0.00,VWS V14.01,2013-12-21 12:00:00,
2013-12-21 06:01:00,30.5,29.5,29.86,NW,306,6.9,6.9,96,0.00,,,0.00,0.00,VWS V14.01,2013-12-21 12:01:00,
2013-12-21 06:02:00,30.5,29.5,29.86,NW,312,5.8,9.2,96,0.00,,,0.00,0.00,VWS V14.01,2013-12-21 12:02:00,
2013-12-21 06:05:00,30.5,29.5,29.86,NW,312,4.6,9.2,96,0.00,,,0.00,0.00,VWS V14.01,2013-12-21 12:05:00,
2013-12-21 06:06:00,30.5,29.5,29.86,NW,309,9.2,9.2,96,0.00,,,0.00,0.00,VWS V14.01,2013-12-21 12:06:00,
2013-12-21 06:07:00,30.5,29.5,29.86,WNW,298,10.3,10.3,96,0.00,,,0.00,0.00,VWS V14.01,2013-12-21 12:07:00,
2013-12-21 06:08:00,30.5,29.5,29.86,WNW,302,4.6,10.3,96,0.00,,,0.00,0.00,VWS V14.01,2013-12-21 12:08:00,
2013-12-21 06:11:00,30.5,29.5,29.86,WNW,302,3.4,3.4,96,0.00,,,0.00,0.00,VWS V14.01,2013-12-21 12:11:00,
2013-12-21 06:12:00,30.5,29.5,29.86,WNW,302,4.6,8.1,96,0.00,,,0.00,0.00,VWS V14.01,2013-12-21 12:12:00,
2013-12-21 06:13:00,30.4,29.4,29.86,WNW,296,5.8,8.1,96,0.00,,,0.00,0.00,VWS V14.01,2013-12-21 12:13:00,
2013-12-21 06:14:00,30.4,29.4,29.86,WNW,297,6.9,8.1,96,0.00,,,0.00,0.00,VWS V14.01,2013-12-21 12:14:00,
2013-12-21 06:17:00,30.4,29.4,29.87,NW,306,4.6,8.1,96,0.00,,,0.00,0.00,VWS V14.01,2013-12-21 12:17:00,
2013-12-21 06:18:00,30.4,29.4,29.87,NW,306,3.4,8.1,96,0.00,,,0.00,0.00,VWS V14.01,2013-12-21 12:18:00,
2013-12-21 06:20:00,30.4,29.4,29.87,NW,305,4.6,8.1,96,0.00,,,0.00,0.00,VWS V14.01,2013-12-21 12:20:00,
2013-12-21 06:23:00,30.4,29.4,29.87,NW,305,5.8,5.8,96,0.00,,,0.00,0.00,VWS V14.01,2013-12-21 12:23:00,
2013-12-21 06:24:00,30.4,29.4,29.87,NW,305,5.8,6.9,96,0.00,,,0.00,0.00,VWS V14.01,2013-12-21 12:24:00,
2013-12-21 06:25:00,30.4,29.4,29.87,NW,305,5.8,6.9,96,0.00,,,0.00,0.00,VWS V14.01,2013-12-21 12:25:00,
2013-12-21 06:26:00,30.4,29.4,29.87,NW,305,4.6,6.9,96,0.00,,,0.00,0.00,VWS V14.01,2013-12-21 12:26:00,
2013-12-21 06:28:00,30.4,29.4,29.87,NW,305,3.4,6.9,96,0.00,,,0.00,0.00,VWS V14.01,2013-12-21 12:28:00,
2013-12-21 06:29:00,30.4,29.4,29.87,NW,305,3.4,6.9,96,0.00,,,0.00,0.00,VWS V14.01,2013-12-21 12:29:00,
2013-12-21 06:31:00,30.4,29.4,29.86,NW,305,4.6,4.6,96,0.00,,,0.00,0.00,VWS V14.01,2013-12-21 12:31:00,
2013-12-21 06:32:00,30.3,29.3,29.86,NW,305,2.3,4.6,96,0.00,,,0.00,0.00,VWS V14.01,2013-12-21 12:32:00,
2013-12-21 06:34:00,30.4,29.4,29.86,NW,305,3.4,4.6,96,0.00,,,0.00,0.00,VWS V14.01,2013-12-21 12:34:00,
2013-12-21 06:35:00,30.4,29.4,29.86,NW,311,4.6,6.9,96,0.00,,,0.00,0.00,VWS V14.01,2013-12-21 12:35:00,
2013-12-21 06:36:00,30.4,29.4,29.86,NW,314,5.8,5.8,96,0.00,,,0.00,0.00,VWS V14.01,2013-12-21 12:36:00,
2013-12-21 06:37:00,30.4,29.4,29.86,NW,313,4.6,8.1,96,0.00,,,0.00,0.00,VWS V14.01,2013-12-21 12:37:00,
2013-12-21 06:40:00,30.3,29.3,29.86,WNW,299,4.6,8.1,96,0.00,,,0.00,0.00,VWS V14.01,2013-12-21 12:40:00,
2013-12-21 06:41:00,30.3,29.3,29.86,WNW,299,3.4,4.6,96,0.00,,,0.00,0.00,VWS V14.01,2013-12-21 12:41:00,
2013-12-21 06:42:00,30.3,29.3,29.85,NW,312,6.9,8.1,96,0.00,,,0.00,0.00,VWS V14.01,2013-12-21 12:42:00,
2013-12-21 06:43:00,30.3,29.3,29.85,NW,312,4.6,8.1,96,0.00,,,0.00,0.00,VWS V14.01,2013-12-21 12:43:00,
2013-12-21 06:44:00,30.3,29.3,29.85,NW,311,6.9,8.1,96,0.00,,,0.00,0.00,VWS V14.01,2013-12-21 12:44:00,
2013-12-21 06:45:00,30.3,29.3,29.85,NW,311,5.8,8.1,96,0.00,,,0.00,0.00,VWS V14.01,2013-12-21 12:45:00,
2013-12-21 06:47:00,30.3,29.3,29.86,NW,311,4.6,5.8,96,0.00,,,0.00,0.00,VWS V14.01,2013-12-21 12:47:00,
2013-12-21 06:49:00,30.3,29.3,29.86,NW,311,2.3,5.8,96,0.00,,,0.00,0.00,VWS V14.01,2013-12-21 12:49:00,
2013-12-21 06:50:00,30.3,29.3,29.85,NW,314,3.4,5.8,96,0.00,,,0.00,0.00,VWS V14.01,2013-12-21 12:50:00,
2013-12-21 06:52:00,30.3,29.3,29.86,NW,317,0.0,5.8,96,0.00,,,0.00,0.00,VWS V14.01,2013-12-21 12:52:00,
2013-12-21 06:53:00,30.3,29.3,29.86,NW,317,0.0,5.8,96,0.00,,,0.00,0.00,VWS V14.01,2013-12-21 12:53:00,
2013-12-21 06:54:00,30.3,29.3,29.85,NW,317,2.3,5.8,96,0.00,,,0.00,0.00,VWS V14.01,2013-12-21 12:54:00,
2013-12-21 06:55:00,30.4,29.4,29.85,NW,317,3.4,5.8,96,0.00,,,0.00,0.00,VWS V14.01,2013-12-21 12:55:00,
2013-12-21 06:57:00,30.4,29.4,29.85,NW,317,4.6,4.6,96,0.00,,,0.00,0.00,VWS V14.01,2013-12-21 12:57:00,
2013-12-21 06:58:00,30.4,29.4,29.85,NNW,329,4.6,5.8,96,0.00,,,0.00,0.00,VWS V14.01,2013-12-21 12:58:00,
2013-12-21 06:59:00,30.4,29.4,29.85,NNW,329,2.3,5.8,96,0.00,,,0.00,0.00,VWS V14.01,2013-12-21 12:59:00,
2013-12-21 07:00:00,30.4,29.4,29.85,NNW,329,2.3,5.8,96,0.00,,,0.00,0.00,VWS V14.01,2013-12-21 13:00:00,
2013-12-21 07:02:00,30.5,29.5,29.85,NNW,329,2.3,5.8,96,0.00,,,0.00,0.00,VWS V14.01,2013-12-21 13:02:00,
2013-12-21 07:03:00,30.4,29.4,29.85,NNW,329,4.6,5.8,96,0.00,,,0.00,0.00,VWS V14.01,2013-12-21 13:03:00,
2013-12-21 07:04:00,30.5,29.5,29.85,NNW,329,5.8,5.8,96,0.00,,,0.00,0.00,VWS V14.01,2013-12-21 13:04:00,
2013-12-21 07:05:00,30.4,29.4,29.85,NNW,329,5.8,5.8,96,0.00,,,0.00,0.00,VWS V14.01,2013-12-21 13:05:00,
2013-12-21 07:06:00,30.5,29.5,29.85,NNW,329,4.6,4.6,96,0.00,,,0.00,0.00,VWS V14.01,2013-12-21 13:06:00,
2013-12-21 07:07:00,30.4,29.4,29.85,NNW,329,4.6,5.8,96,0.00,,,0.00,0.00,VWS V14.01,2013-12-21 13:07:00,
2013-12-21 07:08:00,30.4,29.4,29.85,NNW,329,3.4,5.8,96,0.00,,,0.00,0.00,VWS V14.01,2013-12-21 13:08:00,
2013-12-21 07:10:00,30.5,29.5,29.85,NNW,329,4.6,5.8,96,0.00,,,0.00,0.00,VWS V14.01,2013-12-21 13:10:00,
2013-12-21 07:11:00,30.5,29.5,29.84,NNW,329,4.6,6.9,96,0.00,,,0.00,0.00,VWS V14.01,2013-12-21 13:11:00,
2013-12-21 07:13:00,30.5,29.5,29.83,NNW,329,3.4,6.9,96,0.00,,,0.00,0.00,VWS V14.01,2013-12-21 13:13:00,
2013-12-21 07:14:00,30.5,29.5,29.83,NNW,329,4.6,6.9,96,0.00,,,0.00,0.00,VWS V14.01,2013-12-21 13:14:00,
2013-12-21 07:16:00,30.5,29.5,29.83,NNW,329,2.3,3.4,96,0.02,,,0.02,0.00,VWS V14.01,2013-12-21 13:16:00,
2013-12-21 07:18:00,30.5,29.5,29.84,NNW,329,3.4,5.8,96,0.02,,,0.02,0.00,VWS V14.01,2013-12-21 13:18:00,
2013-12-21 07:19:00,30.5,29.5,29.83,NNW,329,3.4,5.8,96,0.02,,,0.02,0.00,VWS V14.01,2013-12-21 13:19:00,
2013-12-21 07:20:00,30.5,29.5,29.83,NNW,329,4.6,5.8,96,0.02,,,0.02,0.00,VWS V14.01,2013-12-21 13:20:00,
2013-12-21 07:21:00,30.5,29.5,29.83,NNW,329,2.3,3.4,96,0.02,,,0.02,0.00,VWS V14.01,2013-12-21 13:21:00,
2013-12-21 07:22:00,30.5,29.5,29.83,NNW,329,3.4,4.6,96,0.02,,,0.02,0.00,VWS V14.01,2013-12-21 13:22:00,
2013-12-21 07:24:00,30.6,29.6,29.83,NNW,329,1.1,4.6,96,0.02,,,0.02,0.00,VWS V14.01,2013-12-21 13:24:00,
2013-12-21 07:25:00,30.6,29.6,29.83,NNW,329,5.8,5.8,96,0.02,,,0.02,0.00,VWS V14.01,2013-12-21 13:25:00,
2013-12-21 07:27:00,30.6,29.6,29.84,NNW,331,2.3,6.9,96,0.02,,,0.02,0.00,VWS V14.01,2013-12-21 13:27:00,
2013-12-21 07:28:00,30.6,29.6,29.83,NNW,331,3.4,6.9,96,0.02,,,0.02,0.00,VWS V14.01,2013-12-21 13:28:00,
2013-12-21 07:29:00,30.6,29.6,29.83,NNW,331,4.6,6.9,96,0.02,,,0.02,0.00,VWS V14.01,2013-12-21 13:29:00,
2013-12-21 07:30:00,30.6,29.6,29.82,NNW,331,2.3,6.9,96,0.02,,,0.02,0.00,VWS V14.01,2013-12-21 13:30:00,
2013-12-21 07:32:00,30.6,29.6,29.82,NNW,331,0.0,2.3,96,0.02,,,0.02,0.00,VWS V14.01,2013-12-21 13:32:00,
2013-12-21 07:34:00,30.6,29.6,29.82,NNW,331,1.1,3.4,96,0.02,,,0.02,0.00,VWS V14.01,2013-12-21 13:34:00,
2013-12-21 07:36:00,30.6,29.6,29.82,NNW,331,0.0,1.1,96,0.02,,,0.02,0.00,VWS V14.01,2013-12-21 13:36:00,
2013-12-21 07:37:00,30.6,29.6,29.82,NNW,331,0.0,1.1,96,0.02,,,0.02,5.00,VWS V14.01,2013-12-21 13:37:00,
2013-12-21 07:38:00,30.6,29.6,29.82,NNW,331,0.0,1.1,96,0.02,,,0.02,5.00,VWS V14.01,2013-12-21 13:38:00,
2013-12-21 07:39:00,30.6,29.6,29.82,NNW,331,2.3,2.3,96,0.02,,,0.02,7.00,VWS V14.01,2013-12-21 13:39:00,
2013-12-21 07:40:00,30.6,29.6,29.82,NNW,331,2.3,4.6,96,0.02,,,0.02,9.00,VWS V14.01,2013-12-21 13:40:00,
2013-12-21 07:42:00,30.6,29.6,29.82,NNW,331,2.3,4.6,96,0.02,,,0.02,12.00,VWS V14.01,2013-12-21 13:42:00,
2013-12-21 07:43:00,30.7,29.7,29.82,NNW,331,2.3,4.6,96,0.02,,,0.02,14.00,VWS V14.01,2013-12-21 13:43:00,
2013-12-21 07:44:00,30.7,29.7,29.82,NNW,331,3.4,4.6,96,0.02,,,0.02,14.00,VWS V14.01,2013-12-21 13:44:00,
2013-12-21 07:45:00,30.7,29.7,29.83,NNW,331,3.4,5.8,96,0.02,,,0.02,14.00,VWS V14.01,2013-12-21 13:45:00,
2013-12-21 07:46:00,30.7,29.7,29.82,NNW,336,2.3,6.9,96,0.02,,,0.02,12.00,VWS V14.01,2013-12-21 13:46:00,
2013-12-21 07:47:00,30.7,29.7,29.82,NNW,336,0.0,6.9,96,0.02,,,0.02,12.00,VWS V14.01,2013-12-21 13:47:00,
2013-12-21 07:48:00,30.7,29.7,29.82,NNW,336,2.3,6.9,96,0.02,,,0.02,11.00,VWS V14.01,2013-12-21 13:48:00,
2013-12-21 07:50:00,30.8,29.8,29.83,NNW,336,3.4,6.9,96,0.02,,,0.02,9.00,VWS V14.01,2013-12-21 13:50:00,
2013-12-21 07:51:00,30.8,29.8,29.83,NNW,336,3.4,5.8,96,0.02,,,0.02,9.00,VWS V14.01,2013-12-21 13:51:00,
2013-12-21 07:52:00,30.8,29.8,29.84,NNW,336,5.8,5.8,96,0.02,,,0.02,9.00,VWS V14.01,2013-12-21 13:52:00,
2013-12-21 07:53:00,30.8,29.8,29.84,NNW,336,2.3,5.8,96,0.02,,,0.02,9.00,VWS V14.01,2013-12-21 13:53:00,
2013-12-21 07:55:00,30.9,29.9,29.83,NNW,336,4.6,6.9,96,0.02,,,0.02,9.00,VWS V14.01,2013-12-21 13:55:00,
2013-12-21 07:56:00,30.9,29.9,29.83,NNW,337,4.6,6.9,96,0.02,,,0.02,9.00,VWS V14.01,2013-12-21 13:56:00,
2013-12-21 07:57:00,30.9,29.9,29.84,NNW,337,3.4,6.9,96,0.02,,,0.02,9.00,VWS V14.01,2013-12-21 13:57:00,
2013-12-21 07:58:00,30.9,29.9,29.84,NNW,337,1.1,6.9,96,0.02,,,0.02,9.00,VWS V14.01,2013-12-21 13:58:00,
2013-12-21 08:01:00,31.0,30.0,29.83,North,355,2.3,6.9,96,0.02,,,0.02,11.00,VWS V14.01,2013-12-21 14:01:00,
2013-12-21 08:02:00,31.0,30.0,29.83,North,355,4.6,8.1,96,0.02,,,0.02,12.00,VWS V14.01,2013-12-21 14:02:00,
2013-12-21 08:03:00,31.0,30.0,29.83,North,355,1.1,8.1,96,0.02,,,0.02,12.00,VWS V14.01,2013-12-21 14:03:00,
2013-12-21 08:04:00,31.0,30.0,29.83,North,355,6.9,8.1,96,0.02,,,0.02,14.00,VWS V14.01,2013-12-21 14:04:00,
2013-12-21 08:05:00,31.0,30.0,29.82,North,355,3.4,8.1,96,0.02,,,0.02,14.00,VWS V14.01,2013-12-21 14:05:00,
2013-12-21 08:06:00,31.0,30.0,29.82,North,355,0.0,4.6,96,0.02,,,0.02,16.00,VWS V14.01,2013-12-21 14:06:00,
2013-12-21 08:07:00,31.0,30.0,29.82,North,355,2.3,5.8,96,0.02,,,0.02,16.00,VWS V14.01,2013-12-21 14:07:00,
2013-12-21 08:08:00,31.0,30.0,29.82,North,355,5.8,6.9,96,0.02,,,0.02,16.00,VWS V14.01,2013-12-21 14:08:00,
2013-12-21 08:10:00,31.0,30.0,29.83,North,355,0.0,6.9,96,0.02,,,0.02,16.00,VWS V14.01,2013-12-21 14:10:00,
2013-12-21 08:11:00,31.1,30.1,29.83,North,355,1.1,2.3,96,0.02,,,0.02,14.00,VWS V14.01,2013-12-21 14:11:00,
2013-12-21 08:12:00,31.1,30.1,29.83,North,355,3.4,4.6,96,0.02,,,0.02,14.00,VWS V14.01,2013-12-21 14:12:00,
2013-12-21 08:13:00,31.1,30.1,29.83,North,355,2.3,4.6,96,0.02,,,0.02,14.00,VWS V14.01,2013-12-21 14:13:00,
2013-12-21 08:15:00,31.1,30.1,29.83,North,355,5.8,5.8,96,0.02,,,0.02,12.00,VWS V14.01,2013-12-21 14:15:00,
2013-12-21 08:17:00,31.1,30.1,29.83,North,355,2.3,4.6,96,0.02,,,0.02,12.00,VWS V14.01,2013-12-21 14:17:00,
2013-12-21 08:18:00,31.1,30.1,29.83,North,355,0.0,4.6,96,0.02,,,0.02,12.00,VWS V14.01,2013-12-21 14:18:00,
2013-12-21 08:20:00,31.1,30.1,29.82,North,355,3.4,5.8,96,0.02,,,0.02,14.00,VWS V14.01,2013-12-21 14:20:00,
2013-12-21 08:22:00,31.1,30.1,29.82,North,355,0.0,3.4,96,0.00,,,0.02,14.00,VWS V14.01,2013-12-21 14:22:00,
2013-12-21 08:23:00,31.1,30.1,29.83,North,355,0.0,3.4,96,0.00,,,0.02,14.00,VWS V14.01,2013-12-21 14:23:00,
2013-12-21 08:24:00,31.1,30.1,29.83,North,355,3.4,4.6,96,0.00,,,0.02,12.00,VWS V14.01,2013-12-21 14:24:00,
2013-12-21 08:25:00,31.1,30.1,29.83,North,355,2.3,4.6,96,0.00,,,0.02,12.00,VWS V14.01,2013-12-21 14:25:00,
2013-12-21 08:28:00,31.2,30.2,29.83,North,355,0.0,4.6,96,0.00,,,0.02,11.00,VWS V14.01,2013-12-21 14:28:00,
2013-12-21 08:29:00,31.2,30.2,29.84,North,355,0.0,4.6,96,0.00,,,0.02,12.00,VWS V14.01,2013-12-21 14:29:00,
2013-12-21 08:30:00,31.2,30.2,29.84,North,355,0.0,4.6,96,0.00,,,0.02,12.00,VWS V14.01,2013-12-21 14:30:00,
2013-12-21 08:33:00,31.2,30.2,29.84,North,355,5.8,5.8,96,0.00,,,0.02,14.00,VWS V14.01,2013-12-21 14:33:00,
2013-12-21 08:34:00,31.2,30.2,29.84,North,355,1.1,5.8,96,0.00,,,0.02,14.00,VWS V14.01,2013-12-21 14:34:00,
2013-12-21 08:35:00,31.2,30.2,29.84,North,355,2.3,5.8,96,0.00,,,0.02,14.00,VWS V14.01,2013-12-21 14:35:00,
2013-12-21 08:37:00,31.2,30.2,29.84,North,355,0.0,3.4,96,0.00,,,0.02,16.00,VWS V14.01,2013-12-21 14:37:00,
2013-12-21 08:39:00,31.3,30.3,29.84,North,355,0.0,3.4,96,0.00,,,0.02,18.00,VWS V14.01,2013-12-21 14:39:00,
2013-12-21 08:40:00,31.3,30.3,29.84,North,355,4.6,5.8,96,0.00,,,0.02,16.00,VWS V14.01,2013-12-21 14:40:00,
2013-12-21 08:42:00,31.3,30.3,29.85,North,355,0.0,5.8,96,0.00,,,0.02,14.00,VWS V14.01,2013-12-21 14:42:00,
2013-12-21 08:44:00,31.3,30.5,29.84,North,355,0.0,5.8,97,0.00,,,0.02,14.00,VWS V14.01,2013-12-21 14:44:00,
2013-12-21 08:45:00,31.3,30.5,29.84,North,355,1.1,5.8,97,0.00,,,0.02,14.00,VWS V14.01,2013-12-21 14:45:00,
2013-12-21 08:46:00,31.3,30.5,29.84,North,355,0.0,0.0,97,0.00,,,0.02,16.00,VWS V14.01,2013-12-21 14:46:00,
2013-12-21 08:48:00,31.3,30.5,29.84,North,355,1.1,2.3,97,0.00,,,0.02,16.00,VWS V14.01,2013-12-21 14:48:00,
2013-12-21 08:50:00,31.3,30.5,29.84,North,355,0.0,2.3,97,0.00,,,0.02,16.00,VWS V14.01,2013-12-21 14:50:00,
2013-12-21 08:51:00,31.3,30.5,29.84,North,355,0.0,0.0,97,0.00,,,0.02,16.00,VWS V14.01,2013-12-21 14:51:00,
2013-12-21 08:52:00,31.4,30.6,29.84,North,355,0.0,0.0,97,0.00,,,0.02,16.00,VWS V14.01,2013-12-21 14:52:00,
2013-12-21 08:53:00,31.4,30.6,29.85,North,355,0.0,0.0,97,0.00,,,0.02,16.00,VWS V14.01,2013-12-21 14:53:00,
2013-12-21 08:54:00,31.4,30.6,29.85,North,355,0.0,0.0,97,0.00,,,0.02,16.00,VWS V14.01,2013-12-21 14:54:00,
2013-12-21 08:56:00,31.4,30.6,29.85,North,355,0.0,1.1,97,0.00,,,0.02,18.00,VWS V14.01,2013-12-21 14:56:00,
2013-12-21 08:57:00,31.4,30.6,29.85,North,355,0.0,1.1,97,0.00,,,0.02,18.00,VWS V14.01,2013-12-21 14:57:00,
2013-12-21 08:59:00,31.4,30.6,29.85,North,355,0.0,1.1,97,0.00,,,0.02,18.00,VWS V14.01,2013-12-21 14:59:00,
2013-12-21 09:00:00,31.4,30.6,29.85,North,355,1.1,1.1,97,0.00,,,0.02,18.00,VWS V14.01,2013-12-21 15:00:00,
2013-12-21 09:02:00,31.4,30.6,29.85,North,355,0.0,2.3,97,0.00,,,0.02,19.00,VWS V14.01,2013-12-21 15:02:00,
2013-12-21 09:03:00,31.4,30.6,29.85,North,355,0.0,2.3,97,0.00,,,0.02,21.00,VWS V14.01,2013-12-21 15:03:00,
2013-12-21 09:05:00,31.5,30.8,29.85,North,355,0.0,2.3,97,0.00,,,0.02,21.00,VWS V14.01,2013-12-21 15:05:00,
2013-12-21 09:07:00,31.5,30.8,29.85,North,355,0.0,1.1,97,0.00,,,0.02,21.00,VWS V14.01,2013-12-21 15:07:00,
2013-12-21 09:09:00,31.5,30.8,29.86,North,355,0.0,2.3,97,0.00,,,0.02,21.00,VWS V14.01,2013-12-21 15:09:00,
2013-12-21 09:11:00,31.5,30.8,29.86,North,355,0.0,0.0,97,0.00,,,0.02,21.00,VWS V14.01,2013-12-21 15:11:00,
2013-12-21 09:12:00,31.5,30.8,29.86,North,355,0.0,1.1,97,0.00,,,0.02,21.00,VWS V14.01,2013-12-21 15:12:00,
2013-12-21 09:13:00,31.5,30.8,29.86,North,355,0.0,1.1,97,0.00,,,0.02,21.00,VWS V14.01,2013-12-21 15:13:00,
2013-12-21 09:14:00,31.5,30.8,29.86,North,355,0.0,1.1,97,0.00,,,0.02,21.00,VWS V14.01,2013-12-21 15:14:00,
2013-12-21 09:16:00,31.6,30.9,29.85,North,355,2.3,2.3,97,0.00,,,0.02,25.00,VWS V14.01,2013-12-21 15:16:00,
2013-12-21 09:17:00,31.6,30.9,29.85,North,355,0.0,2.3,97,0.00,,,0.02,26.00,VWS V14.01,2013-12-21 15:17:00,
2013-12-21 09:18:00,31.6,30.6,29.85,North,355,1.1,2.3,96,0.00,,,0.02,26.00,VWS V14.01,2013-12-21 15:18:00,
2013-12-21 09:19:00,31.6,30.6,29.85,North,355,2.3,2.3,96,0.00,,,0.02,26.00,VWS V14.01,2013-12-21 15:19:00,
2013-12-21 09:21:00,31.6,30.6,29.85,North,355,0.0,2.3,96,0.00,,,0.02,28.00,VWS V14.01,2013-12-21 15:21:00,
2013-12-21 09:22:00,31.6,30.6,29.85,North,355,0.0,2.3,96,0.00,,,0.02,28.00,VWS V14.01,2013-12-21 15:22:00,
2013-12-21 09:24:00,31.6,30.6,29.85,North,355,0.0,3.4,96,0.00,,,0.02,28.00,VWS V14.01,2013-12-21 15:24:00,
2013-12-21 09:26:00,31.7,30.7,29.85,North,355,0.0,0.0,96,0.00,,,0.02,30.00,VWS V14.01,2013-12-21 15:26:00,
2013-12-21 09:27:00,31.7,30.7,29.85,North,355,0.0,0.0,96,0.00,,,0.02,28.00,VWS V14.01,2013-12-21 15:27:00,
2013-12-21 09:29:00,31.7,30.7,29.85,North,355,0.0,0.0,96,0.00,,,0.02,28.00,VWS V14.01,2013-12-21 15:29:00,
2013-12-21 09:30:00,31.7,30.7,29.85,North,355,0.0,0.0,96,0.00,,,0.02,28.00,VWS V14.01,2013-12-21 15:30:00,
2013-12-21 09:31:00,31.7,30.7,29.85,North,355,0.0,2.3,96,0.00,,,0.02,30.00,VWS V14.01,2013-12-21 15:31:00,
2013-12-21 09:33:00,31.8,30.8,29.85,North,355,1.1,2.3,96,0.00,,,0.02,32.00,VWS V14.01,2013-12-21 15:33:00,
2013-12-21 09:34:00,31.8,30.8,29.85,North,355,0.0,2.3,96,0.00,,,0.02,32.00,VWS V14.01,2013-12-21 15:34:00,
2013-12-21 09:35:00,31.8,30.8,29.85,North,355,0.0,2.3,96,0.00,,,0.02,32.00,VWS V14.01,2013-12-21 15:35:00,
2013-12-21 09:37:00,31.8,30.8,29.84,North,355,0.0,2.3,96,0.00,,,0.02,35.00,VWS V14.01,2013-12-21 15:37:00,
2013-12-21 09:39:00,31.8,30.8,29.84,North,355,1.1,2.3,96,0.00,,,0.02,39.00,VWS V14.01,2013-12-21 15:39:00,
2013-12-21 09:40:00,31.8,30.8,29.84,North,355,2.3,2.3,96,0.00,,,0.02,40.00,VWS V14.01,2013-12-21 15:40:00,
2013-12-21 09:43:00,31.9,30.9,29.84,North,355,2.3,2.3,96,0.00,,,0.02,42.00,VWS V14.01,2013-12-21 15:43:00,
2013-12-21 09:44:00,31.9,30.9,29.84,North,355,2.3,3.4,96,0.00,,,0.02,42.00,VWS V14.01,2013-12-21 15:44:00,
2013-12-21 09:45:00,31.9,31.1,29.84,North,355,2.3,3.4,97,0.00,,,0.02,39.00,VWS V14.01,2013-12-21 15:45:00,
2013-12-21 09:46:00,31.9,31.1,29.85,North,355,2.3,2.3,97,0.00,,,0.02,39.00,VWS V14.01,2013-12-21 15:46:00,
2013-12-21 09:47:00,31.9,31.1,29.85,North,355,0.0,3.4,97,0.00,,,0.02,39.00,VWS V14.01,2013-12-21 15:47:00,
2013-12-21 09:48:00,31.9,31.1,29.85,North,355,0.0,3.4,97,0.00,,,0.02,39.00,VWS V14.01,2013-12-21 15:48:00,
2013-12-21 09:49:00,31.9,31.1,29.85,North,355,0.0,3.4,97,0.00,,,0.02,39.00,VWS V14.01,2013-12-21 15:49:00,
2013-12-21 09:50:00,31.9,31.1,29.85,North,355,0.0,3.4,97,0.00,,,0.02,35.00,VWS V14.01,2013-12-21 15:50:00,
2013-12-21 09:51:00,31.9,31.1,29.86,North,355,2.3,2.3,97,0.00,,,0.02,35.00,VWS V14.01,2013-12-21 15:51:00,
2013-12-21 09:52:00,32.0,31.2,29.86,North,355,0.0,2.3,97,0.00,,,0.02,35.00,VWS V14.01,2013-12-21 15:52:00,
2013-12-21 09:53:00,32.0,31.2,29.86,North,355,1.1,2.3,97,0.00,,,0.02,35.00,VWS V14.01,2013-12-21 15:53:00,
2013-12-21 09:54:00,32.0,31.2,29.86,North,355,0.0,2.3,97,0.00,,,0.02,35.00,VWS V14.01,2013-12-21 15:54:00,
2013-12-21 09:55:00,32.0,31.2,29.86,North,355,0.0,2.3,97,0.00,,,0.02,35.00,VWS V14.01,2013-12-21 15:55:00,
2013-12-21 09:56:00,32.0,31.2,29.86,North,355,0.0,0.0,97,0.00,,,0.02,35.00,VWS V14.01,2013-12-21 15:56:00,
2013-12-21 09:57:00,32.0,31.2,29.87,North,355,1.1,2.3,97,0.00,,,0.02,33.00,VWS V14.01,2013-12-21 15:57:00,
2013-12-21 09:58:00,32.0,31.2,29.87,North,355,0.0,2.3,97,0.00,,,0.02,32.00,VWS V14.01,2013-12-21 15:58:00,
2013-12-21 09:59:00,32.0,31.2,29.87,North,355,0.0,2.3,97,0.00,,,0.02,30.00,VWS V14.01,2013-12-21 15:59:00,
2013-12-21 10:01:00,32.1,31.4,29.87,North,355,2.3,2.3,97,0.00,,,0.02,28.00,VWS V14.01,2013-12-21 16:01:00,
2013-12-21 10:02:00,32.1,31.4,29.87,North,355,1.1,3.4,97,0.00,,,0.02,28.00,VWS V14.01,2013-12-21 16:02:00,
2013-12-21 10:05:00,32.1,31.4,29.88,North,355,0.0,3.4,97,0.00,,,0.02,28.00,VWS V14.01,2013-12-21 16:05:00,
2013-12-21 10:06:00,32.1,31.4,29.87,North,355,0.0,0.0,97,0.00,,,0.02,28.00,VWS V14.01,2013-12-21 16:06:00,
2013-12-21 10:07:00,32.1,31.4,29.87,North,355,0.0,0.0,97,0.00,,,0.02,28.00,VWS V14.01,2013-12-21 16:07:00,
2013-12-21 10:08:00,32.1,31.4,29.87,North,355,0.0,0.0,97,0.00,,,0.02,28.00,VWS V14.01,2013-12-21 16:08:00,
2013-12-21 10:09:00,32.1,31.4,29.87,North,355,0.0,0.0,97,0.00,,,0.02,30.00,VWS V14.01,2013-12-21 16:09:00,
2013-12-21 10:10:00,32.1,31.4,29.87,North,355,0.0,0.0,97,0.00,,,0.02,30.00,VWS V14.01,2013-12-21 16:10:00,
2013-12-21 10:11:00,32.1,31.4,29.86,North,355,0.0,0.0,97,0.00,,,0.02,32.00,VWS V14.01,2013-12-21 16:11:00,
2013-12-21 10:12:00,32.2,31.5,29.87,North,355,0.0,0.0,97,0.00,,,0.02,33.00,VWS V14.01,2013-12-21 16:12:00,
2013-12-21 10:14:00,32.2,31.5,29.87,North,355,0.0,0.0,97,0.00,,,0.02,33.00,VWS V14.01,2013-12-21 16:14:00,
2013-12-21 10:15:00,32.2,31.5,29.87,North,355,0.0,0.0,97,0.00,,,0.02,33.00,VWS V14.01,2013-12-21 16:15:00,
2013-12-21 10:16:00,32.2,31.5,29.87,North,355,0.0,0.0,97,0.00,,,0.02,33.00,VWS V14.01,2013-12-21 16:16:00,
2013-12-21 10:18:00,32.2,31.2,29.87,North,355,0.0,0.0,96,0.00,,,0.02,30.00,VWS V14.01,2013-12-21 16:18:00,
2013-12-21 10:20:00,32.3,31.3,29.87,North,355,0.0,2.3,96,0.00,,,0.02,30.00,VWS V14.01,2013-12-21 16:20:00,
2013-12-21 10:21:00,32.3,31.3,29.87,North,355,0.0,0.0,96,0.00,,,0.02,30.00,VWS V14.01,2013-12-21 16:21:00,
2013-12-21 10:22:00,32.3,31.3,29.87,North,355,0.0,1.1,96,0.00,,,0.02,30.00,VWS V14.01,2013-12-21 16:22:00,
2013-12-21 10:24:00,32.3,31.3,29.86,North,355,0.0,1.1,96,0.00,,,0.02,32.00,VWS V14.01,2013-12-21 16:24:00,
2013-12-21 10:25:00,32.3,31.3,29.86,North,355,0.0,1.1,96,0.00,,,0.02,33.00,VWS V14.01,2013-12-21 16:25:00,
2013-12-21 10:27:00,32.3,31.3,29.86,North,355,0.0,0.0,96,0.00,,,0.02,33.00,VWS V14.01,2013-12-21 16:27:00,
2013-12-21 10:28:00,32.3,31.3,29.86,North,355,0.0,0.0,96,0.00,,,0.02,35.00,VWS V14.01,2013-12-21 16:28:00,
2013-12-21 10:30:00,32.3,31.3,29.86,North,355,1.1,1.1,96,0.00,,,0.02,37.00,VWS V14.01,2013-12-21 16:30:00,
2013-12-21 10:32:00,32.4,31.4,29.86,North,355,0.0,0.0,96,0.00,,,0.02,37.00,VWS V14.01,2013-12-21 16:32:00,
2013-12-21 10:33:00,32.4,31.4,29.86,North,355,1.1,1.1,96,0.00,,,0.02,37.00,VWS V14.01,2013-12-21 16:33:00,
2013-12-21 10:35:00,32.4,31.4,29.86,North,355,1.1,2.3,96,0.00,,,0.02,37.00,VWS V14.01,2013-12-21 16:35:00,
2013-12-21 10:37:00,32.4,31.4,29.86,North,355,0.0,1.1,96,0.00,,,0.02,37.00,VWS V14.01,2013-12-21 16:37:00,
2013-12-21 10:38:00,32.4,31.4,29.86,North,355,0.0,1.1,96,0.00,,,0.02,39.00,VWS V14.01,2013-12-21 16:38:00,
2013-12-21 10:39:00,32.4,31.4,29.86,North,355,1.1,3.4,96,0.00,,,0.02,39.00,VWS V14.01,2013-12-21 16:39:00,
2013-12-21 10:40:00,32.4,31.4,29.86,North,355,2.3,3.4,96,0.00,,,0.02,39.00,VWS V14.01,2013-12-21 16:40:00,
2013-12-21 10:42:00,32.5,31.5,29.86,North,355,4.6,4.6,96,0.00,,,0.02,39.00,VWS V14.01,2013-12-21 16:42:00,
2013-12-21 10:43:00,32.5,31.5,29.86,North,355,2.3,4.6,96,0.00,,,0.02,37.00,VWS V14.01,2013-12-21 16:43:00,
2013-12-21 10:44:00,32.5,31.5,29.86,North,355,1.1,4.6,96,0.00,,,0.02,35.00,VWS V14.01,2013-12-21 16:44:00,
2013-12-21 10:45:00,32.5,31.7,29.86,North,355,1.1,4.6,97,0.00,,,0.02,35.00,VWS V14.01,2013-12-21 16:45:00,
2013-12-21 10:46:00,32.5,31.5,29.86,North,355,1.1,2.3,96,0.00,,,0.02,35.00,VWS V14.01,2013-12-21 16:46:00,
2013-12-21 10:47:00,32.5,31.7,29.86,North,355,0.0,2.3,97,0.00,,,0.02,35.00,VWS V14.01,2013-12-21 16:47:00,
2013-12-21 10:48:00,32.5,31.7,29.86,North,355,0.0,2.3,97,0.00,,,0.02,37.00,VWS V14.01,2013-12-21 16:48:00,
2013-12-21 10:49:00,32.5,31.7,29.86,North,355,0.0,2.3,97,0.00,,,0.02,35.00,VWS V14.01,2013-12-21 16:49:00,
2013-12-21 10:50:00,32.5,31.7,29.85,North,355,0.0,4.6,97,0.00,,,0.02,37.00,VWS V14.01,2013-12-21 16:50:00,
2013-12-21 10:52:00,32.6,31.8,29.85,North,355,1.1,4.6,97,0.00,,,0.02,37.00,VWS V14.01,2013-12-21 16:52:00,
2013-12-21 10:53:00,32.5,31.7,29.85,North,355,0.0,4.6,97,0.00,,,0.02,35.00,VWS V14.01,2013-12-21 16:53:00,
2013-12-21 10:54:00,32.6,31.8,29.85,North,355,2.3,4.6,97,0.00,,,0.02,35.00,VWS V14.01,2013-12-21 16:54:00,
2013-12-21 10:55:00,32.6,31.8,29.85,North,355,0.0,4.6,97,0.00,,,0.02,33.00,VWS V14.01,2013-12-21 16:55:00,
2013-12-21 10:56:00,32.6,31.8,29.85,North,355,0.0,0.0,97,0.00,,,0.02,33.00,VWS V14.01,2013-12-21 16:56:00,
2013-12-21 10:57:00,32.6,31.8,29.85,North,355,0.0,0.0,97,0.00,,,0.02,33.00,VWS V14.01,2013-12-21 16:57:00,
2013-12-21 10:58:00,32.6,31.8,29.85,North,355,0.0,0.0,97,0.00,,,0.02,35.00,VWS V14.01,2013-12-21 16:58:00,
2013-12-21 11:01:00,32.6,31.8,29.85,North,355,1.1,2.3,97,0.00,,,0.02,37.00,VWS V14.01,2013-12-21 17:01:00,
2013-12-21 11:03:00,32.6,31.8,29.85,North,355,0.0,2.3,97,0.00,,,0.02,37.00,VWS V14.01,2013-12-21 17:03:00,
2013-12-21 11:04:00,32.6,31.8,29.85,North,355,0.0,2.3,97,0.00,,,0.02,39.00,VWS V14.01,2013-12-21 17:04:00,
2013-12-21 11:06:00,32.7,31.9,29.85,North,355,2.3,2.3,97,0.00,,,0.02,39.00,VWS V14.01,2013-12-21 17:06:00,
2013-12-21 11:07:00,32.7,31.9,29.86,North,355,0.0,2.3,97,0.00,,,0.02,39.00,VWS V14.01,2013-12-21 17:07:00,
2013-12-21 11:08:00,32.7,31.9,29.86,North,355,1.1,2.3,97,0.00,,,0.02,37.00,VWS V14.01,2013-12-21 17:08:00,
2013-12-21 11:09:00,32.7,31.9,29.86,North,355,0.0,2.3,97,0.00,,,0.02,37.00,VWS V14.01,2013-12-21 17:09:00,
2013-12-21 11:10:00,32.7,31.9,29.86,North,355,0.0,2.3,97,0.00,,,0.02,37.00,VWS V14.01,2013-12-21 17:10:00,
2013-12-21 11:12:00,32.7,31.9,29.86,North,355,0.0,2.3,97,0.00,,,0.02,37.00,VWS V14.01,2013-12-21 17:12:00,
2013-12-21 11:14:00,32.7,31.9,29.86,North,355,0.0,3.4,97,0.00,,,0.02,35.00,VWS V14.01,2013-12-21 17:14:00,
2013-12-21 11:15:00,32.7,31.9,29.86,North,355,0.0,3.4,97,0.00,,,0.02,33.00,VWS V14.01,2013-12-21 17:15:00,
2013-12-21 11:17:00,32.8,32.0,29.86,North,355,1.1,2.3,97,0.00,,,0.02,33.00,VWS V14.01,2013-12-21 17:17:00,
2013-12-21 11:18:00,32.8,32.0,29.86,North,355,0.0,2.3,97,0.00,,,0.02,33.00,VWS V14.01,2013-12-21 17:18:00,
2013-12-21 11:19:00,32.8,32.0,29.86,North,355,0.0,2.3,97,0.00,,,0.02,33.00,VWS V14.01,2013-12-21 17:19:00,
2013-12-21 11:21:00,32.8,32.0,29.86,North,355,1.1,2.3,97,0.00,,,0.02,32.00,VWS V14.01,2013-12-21 17:21:00,
2013-12-21 11:23:00,32.8,32.0,29.86,North,355,2.3,3.4,97,0.00,,,0.02,33.00,VWS V14.01,2013-12-21 17:23:00,
2013-12-21 11:24:00,32.8,32.0,29.86,North,355,1.1,3.4,97,0.00,,,0.02,33.00,VWS V14.01,2013-12-21 17:24:00,
2013-12-21 11:25:00,32.8,32.0,29.86,North,355,1.1,3.4,97,0.00,,,0.02,33.00,VWS V14.01,2013-12-21 17:25:00,
2013-12-21 11:26:00,32.9,31.9,29.86,North,355,1.1,3.4,96,0.00,,,0.02,33.00,VWS V14.01,2013-12-21 17:26:00,
2013-12-21 11:27:00,32.8,31.8,29.86,North,355,1.1,3.4,96,0.00,,,0.02,33.00,VWS V14.01,2013-12-21 17:27:00,
2013-12-21 11:28:00,32.8,32.0,29.86,North,355,1.1,3.4,97,0.00,,,0.02,33.00,VWS V14.01,2013-12-21 17:28:00,
2013-12-21 11:29:00,32.9,31.9,29.86,North,355,0.0,3.4,96,0.00,,,0.02,32.00,VWS V14.01,2013-12-21 17:29:00,
2013-12-21 11:30:00,32.9,31.9,29.86,North,355,2.3,3.4,96,0.00,,,0.02,33.00,VWS V14.01,2013-12-21 17:30:00,
2013-12-21 11:31:00,32.9,31.9,29.86,North,355,1.1,3.4,96,0.00,,,0.02,33.00,VWS V14.01,2013-12-21 17:31:00,
2013-12-21 11:34:00,32.9,31.9,29.86,North,355,2.3,3.4,96,0.00,,,0.02,33.00,VWS V14.01,2013-12-21 17:34:00,
2013-12-21 11:35:00,32.9,31.9,29.86,North,355,0.0,3.4,96,0.00,,,0.02,33.00,VWS V14.01,2013-12-21 17:35:00,
2013-12-21 11:36:00,32.9,31.9,29.86,North,355,1.1,1.1,96,0.00,,,0.02,33.00,VWS V14.01,2013-12-21 17:36:00,
2013-12-21 11:37:00,32.9,31.9,29.86,North,355,0.0,2.3,96,0.00,,,0.02,33.00,VWS V14.01,2013-12-21 17:37:00,
2013-12-21 11:40:00,32.9,31.9,29.86,North,355,4.6,4.6,96,0.00,,,0.02,33.00,VWS V14.01,2013-12-21 17:40:00,
2013-12-21 11:41:00,32.9,31.9,29.86,North,355,2.3,2.3,96,0.00,,,0.02,33.00,VWS V14.01,2013-12-21 17:41:00,
2013-12-21 11:42:00,33.0,32.0,29.86,North,355,1.1,2.3,96,0.00,,,0.02,32.00,VWS V14.01,2013-12-21 17:42:00,
2013-12-21 11:43:00,33.0,32.0,29.86,North,355,3.4,4.6,96,0.00,,,0.02,32.00,VWS V14.01,2013-12-21 17:43:00,
2013-12-21 11:46:00,33.0,32.0,29.86,North,355,3.4,3.4,96,0.00,,,0.02,33.00,VWS V14.01,2013-12-21 17:46:00,
2013-12-21 11:47:00,33.0,32.0,29.86,North,355,3.4,5.8,96,0.00,,,0.02,33.00,VWS V14.01,2013-12-21 17:47:00,
2013-12-21 11:48:00,33.0,32.0,29.86,North,355,0.0,5.8,96,0.00,,,0.02,33.00,VWS V14.01,2013-12-21 17:48:00,
2013-12-21 11:51:00,33.0,32.0,29.85,North,355,0.0,3.4,96,0.00,,,0.02,35.00,VWS V14.01,2013-12-21 17:51:00,
2013-12-21 11:52:00,33.0,32.0,29.85,North,355,2.3,3.4,96,0.00,,,0.02,37.00,VWS V14.01,2013-12-21 17:52:00,
2013-12-21 11:53:00,33.0,32.0,29.85,North,360,3.4,8.1,96,0.00,,,0.02,37.00,VWS V14.01,2013-12-21 17:53:00,
2013-12-21 11:54:00,33.1,32.1,29.85,North,360,2.3,8.1,96,0.00,,,0.02,39.00,VWS V14.01,2013-12-21 17:54:00,
2013-12-21 11:57:00,33.1,32.1,29.85,North,360,3.4,3.4,96,0.00,,,0.02,39.00,VWS V14.01,2013-12-21 17:57:00,
2013-12-21 11:58:00,33.1,32.1,29.85,North,360,1.1,3.4,96,0.00,,,0.02,40.00,VWS V14.01,2013-12-21 17:58:00,
2013-12-21 11:59:00,33.1,32.1,29.85,North,360,1.1,4.6,96,0.00,,,0.02,40.00,VWS V14.01,2013-12-21 17:59:00,
2013-12-21 12:00:00,33.1,32.3,29.84,North,360,0.0,4.6,97,0.00,,,0.02,37.00,VWS V14.01,2013-12-21 18:00:00,
2013-12-21 12:02:00,33.2,32.4,29.84,North,360,1.1,5.8,97,0.00,,,0.02,39.00,VWS V14.01,2013-12-21 18:02:00,
2013-12-21 12:03:00,33.2,32.4,29.84,North,360,1.1,5.8,97,0.00,,,0.02,40.00,VWS V14.01,2013-12-21 18:03:00,
2013-12-21 12:04:00,33.2,32.4,29.84,North,360,5.8,5.8,97,0.00,,,0.02,42.00,VWS V14.01,2013-12-21 18:04:00,
2013-12-21 12:05:00,33.2,32.4,29.84,North,360,2.3,5.8,97,0.00,,,0.02,44.00,VWS V14.01,2013-12-21 18:05:00,
2013-12-21 12:06:00,33.2,32.4,29.84,North,360,0.0,1.1,97,0.00,,,0.02,44.00,VWS V14.01,2013-12-21 18:06:00,
2013-12-21 12:08:00,33.2,32.4,29.84,North,360,0.0,2.3,97,0.00,,,0.02,40.00,VWS V14.01,2013-12-21 18:08:00,
2013-12-21 12:10:00,33.2,32.4,29.84,North,360,1.1,4.6,97,0.00,,,0.02,39.00,VWS V14.01,2013-12-21 18:10:00,
2013-12-21 12:11:00,33.3,32.5,29.83,North,360,2.3,2.3,97,0.00,,,0.02,39.00,VWS V14.01,2013-12-21 18:11:00,
2013-12-21 12:12:00,33.2,32.4,29.83,North,360,3.4,3.4,97,0.00,,,0.02,40.00,VWS V14.01,2013-12-21 18:12:00,
2013-12-21 12:13:00,33.3,32.5,29.83,North,360,0.0,4.6,97,0.00,,,0.02,39.00,VWS V14.01,2013-12-21 18:13:00,
2013-12-21 12:15:00,33.3,32.5,29.83,North,360,2.3,4.6,97,0.00,,,0.02,37.00,VWS V14.01,2013-12-21 18:15:00,
2013-12-21 12:16:00,33.3,32.5,29.83,North,360,2.3,2.3,97,0.00,,,0.02,37.00,VWS V14.01,2013-12-21 18:16:00,
2013-12-21 12:17:00,33.3,32.5,29.83,North,360,3.4,5.8,97,0.00,,,0.02,35.00,VWS V14.01,2013-12-21 18:17:00,
2013-12-21 12:18:00,33.3,32.5,29.83,North,360,4.6,5.8,97,0.00,,,0.02,37.00,VWS V14.01,2013-12-21 18:18:00,
2013-12-21 12:19:00,33.3,32.5,29.83,North,360,2.3,5.8,97,0.00,,,0.02,39.00,VWS V14.01,2013-12-21 18:19:00,
2013-12-21 12:20:00,33.3,32.5,29.83,North,360,0.0,1.1,97,0.00,,,0.02,37.00,VWS V14.01,2013-12-21 18:20:00,
2013-12-21 12:21:00,33.3,32.5,29.83,North,360,0.0,1.1,97,0.00,,,0.02,39.00,VWS V14.01,2013-12-21 18:21:00,
2013-12-21 12:22:00,33.3,32.5,29.83,North,360,2.3,3.4,97,0.00,,,0.02,40.00,VWS V14.01,2013-12-21 18:22:00,
2013-12-21 12:23:00,33.3,32.5,29.83,North,360,0.0,3.4,97,0.00,,,0.02,42.00,VWS V14.01,2013-12-21 18:23:00,
2013-12-21 12:24:00,33.3,32.5,29.83,North,360,2.3,5.8,97,0.00,,,0.02,40.00,VWS V14.01,2013-12-21 18:24:00,
2013-12-21 12:26:00,33.3,32.5,29.83,North,360,0.0,1.1,97,0.00,,,0.02,46.00,VWS V14.01,2013-12-21 18:26:00,
2013-12-21 12:28:00,33.4,32.6,29.83,North,360,0.0,5.8,97,0.00,,,0.02,49.00,VWS V14.01,2013-12-21 18:28:00,
2013-12-21 12:30:00,33.4,32.6,29.83,North,360,4.6,5.8,97,0.00,,,0.02,47.00,VWS V14.01,2013-12-21 18:30:00,
2013-12-21 12:31:00,33.4,32.6,29.83,North,360,0.0,4.6,97,0.00,,,0.02,47.00,VWS V14.01,2013-12-21 18:31:00,
2013-12-21 12:33:00,33.4,32.6,29.83,North,360,2.3,5.8,97,0.00,,,0.02,47.00,VWS V14.01,2013-12-21 18:33:00,
2013-12-21 12:35:00,33.4,32.6,29.82,North,360,2.3,5.8,97,0.00,,,0.02,49.00,VWS V14.01,2013-12-21 18:35:00,
2013-12-21 12:36:00,33.5,32.7,29.82,North,360,3.4,3.4,97,0.00,,,0.02,49.00,VWS V14.01,2013-12-21 18:36:00,
2013-12-21 12:38:00,33.5,32.7,29.82,North,360,0.0,4.6,97,0.00,,,0.02,54.00,VWS V14.01,2013-12-21 18:38:00,
2013-12-21 12:40:00,33.5,32.7,29.82,North,360,0.0,4.6,97,0.00,,,0.02,54.00,VWS V14.01,2013-12-21 18:40:00,
2013-12-21 12:41:00,33.5,32.7,29.82,North,360,2.3,2.3,97,0.01,,,0.03,54.00,VWS V14.01,2013-12-21 18:41:00,
2013-12-21 12:42:00,33.5,32.7,29.82,North,360,1.1,3.4,97,0.01,,,0.03,54.00,VWS V14.01,2013-12-21 18:42:00,
2013-12-21 12:43:00,33.5,32.7,29.82,North,360,2.3,3.4,97,0.01,,,0.03,53.00,VWS V14.01,2013-12-21 18:43:00,
2013-12-21 12:45:00,33.5,32.7,29.82,North,360,3.4,5.8,97,0.01,,,0.03,54.00,VWS V14.01,2013-12-21 18:45:00,
2013-12-21 12:46:00,33.5,32.7,29.82,North,360,1.1,3.4,97,0.01,,,0.03,54.00,VWS V14.01,2013-12-21 18:46:00,
2013-12-21 12:47:00,33.5,32.7,29.82,North,360,0.0,3.4,97,0.01,,,0.03,53.00,VWS V14.01,2013-12-21 18:47:00,
2013-12-21 12:48:00,33.6,32.8,29.82,North,360,0.0,4.6,97,0.01,,,0.03,54.00,VWS V14.01,2013-12-21 18:48:00,
2013-12-21 12:50:00,33.6,32.8,29.82,North,360,1.1,4.6,97,0.01,,,0.03,53.00,VWS V14.01,2013-12-21 18:50:00,
2013-12-21 12:51:00,33.6,32.8,29.82,North,360,0.0,0.0,97,0.01,,,0.03,53.00,VWS V14.01,2013-12-21 18:51:00,
2013-12-21 12:53:00,33.6,32.8,29.82,North,360,2.3,2.3,97,0.01,,,0.03,53.00,VWS V14.01,2013-12-21 18:53:00,
2013-12-21 12:54:00,33.6,32.8,29.82,North,360,2.3,5.8,97,0.01,,,0.03,49.00,VWS V14.01,2013-12-21 18:54:00,
2013-12-21 12:55:00,33.6,32.8,29.82,North,360,4.6,5.8,97,0.01,,,0.03,51.00,VWS V14.01,2013-12-21 18:55:00,
2013-12-21 12:56:00,33.7,32.9,29.82,North,360,3.4,6.9,97,0.01,,,0.03,51.00,VWS V14.01,2013-12-21 18:56:00,
2013-12-21 12:57:00,33.7,32.9,29.82,North,360,2.3,6.9,97,0.01,,,0.03,49.00,VWS V14.01,2013-12-21 18:57:00,
2013-12-21 12:58:00,33.7,32.9,29.82,North,360,3.4,6.9,97,0.01,,,0.03,46.00,VWS V14.01,2013-12-21 18:58:00,
2013-12-21 12:59:00,33.7,32.9,29.82,North,360,0.0,6.9,97,0.01,,,0.03,46.00,VWS V14.01,2013-12-21 18:59:00,
2013-12-21 13:01:00,33.7,32.9,29.82,North,360,3.4,5.8,97,0.01,,,0.03,44.00,VWS V14.01,2013-12-21 19:01:00,
2013-12-21 13:02:00,33.7,32.9,29.82,North,360,4.6,5.8,97,0.01,,,0.03,44.00,VWS V14.01,2013-12-21 19:02:00,
2013-12-21 13:03:00,33.7,32.9,29.82,North,360,0.0,5.8,97,0.01,,,0.03,42.00,VWS V14.01,2013-12-21 19:03:00,
2013-12-21 13:04:00,33.7,32.9,29.82,North,360,1.1,5.8,97,0.01,,,0.03,42.00,VWS V14.01,2013-12-21 19:04:00,
2013-12-21 13:06:00,33.8,33.0,29.82,North,360,3.4,3.4,97,0.01,,,0.03,37.00,VWS V14.01,2013-12-21 19:06:00,
2013-12-21 13:08:00,33.8,33.0,29.82,North,360,2.3,5.8,97,0.01,,,0.03,37.00,VWS V14.01,2013-12-21 19:08:00,
2013-12-21 13:09:00,33.8,33.0,29.82,North,360,0.0,5.8,97,0.02,,,0.04,37.00,VWS V14.01,2013-12-21 19:09:00,
2013-12-21 13:10:00,33.8,33.0,29.82,North,360,3.4,5.8,97,0.02,,,0.04,39.00,VWS V14.01,2013-12-21 19:10:00,
2013-12-21 13:11:00,33.8,33.0,29.82,North,360,2.3,4.6,97,0.02,,,0.04,39.00,VWS V14.01,2013-12-21 19:11:00,
2013-12-21 13:12:00,33.8,33.0,29.82,North,360,4.6,4.6,97,0.02,,,0.04,37.00,VWS V14.01,2013-12-21 19:12:00,
2013-12-21 13:13:00,33.8,33.0,29.82,North,360,1.1,4.6,97,0.02,,,0.04,37.00,VWS V14.01,2013-12-21 19:13:00,
2013-12-21 13:14:00,33.8,33.0,29.82,North,360,0.0,4.6,97,0.02,,,0.04,37.00,VWS V14.01,2013-12-21 19:14:00,
2013-12-21 13:15:00,33.8,33.0,29.81,North,360,0.0,4.6,97,0.02,,,0.04,39.00,VWS V14.01,2013-12-21 19:15:00,
2013-12-21 13:17:00,33.8,33.0,29.81,North,360,0.0,4.6,97,0.02,,,0.04,39.00,VWS V14.01,2013-12-21 19:17:00,
2013-12-21 13:19:00,33.9,33.1,29.82,North,360,0.0,4.6,97,0.02,,,0.04,39.00,VWS V14.01,2013-12-21 19:19:00,
2013-12-21 13:20:00,33.8,33.0,29.82,North,360,3.4,4.6,97,0.02,,,0.04,44.00,VWS V14.01,2013-12-21 19:20:00,
2013-12-21 13:21:00,33.9,33.1,29.82,North,360,1.1,4.6,97,0.02,,,0.04,44.00,VWS V14.01,2013-12-21 19:21:00,
2013-12-21 13:22:00,33.8,33.0,29.82,North,360,3.4,4.6,97,0.02,,,0.04,42.00,VWS V14.01,2013-12-21 19:22:00,
2013-12-21 13:23:00,33.9,33.1,29.81,North,360,3.4,6.9,97,0.02,,,0.04,42.00,VWS V14.01,2013-12-21 19:23:00,
2013-12-21 13:25:00,33.9,33.1,29.82,North,360,4.6,6.9,97,0.03,,,0.05,40.00,VWS V14.01,2013-12-21 19:25:00,
2013-12-21 13:26:00,33.9,33.1,29.81,North,360,3.4,5.8,97,0.03,,,0.05,40.00,VWS V14.01,2013-12-21 19:26:00,
2013-12-21 13:27:00,33.9,33.1,29.81,North,360,4.6,5.8,97,0.03,,,0.05,40.00,VWS V14.01,2013-12-21 19:27:00,
2013-12-21 13:28:00,33.9,33.1,29.81,North,360,0.0,5.8,97,0.03,,,0.05,40.00,VWS V14.01,2013-12-21 19:28:00,
2013-12-21 13:31:00,33.9,33.1,29.81,North,360,0.0,2.3,97,0.03,,,0.05,42.00,VWS V14.01,2013-12-21 19:31:00,
2013-12-21 13:32:00,33.9,33.1,29.81,North,360,3.4,4.6,97,0.03,,,0.05,39.00,VWS V14.01,2013-12-21 19:32:00,
2013-12-21 13:33:00,33.9,33.1,29.81,North,360,0.0,4.6,97,0.03,,,0.05,40.00,VWS V14.01,2013-12-21 19:33:00,
2013-12-21 13:34:00,34.0,33.2,29.81,North,360,2.3,4.6,97,0.03,,,0.05,40.00,VWS V14.01,2013-12-21 19:34:00,
2013-12-21 13:36:00,34.0,33.2,29.81,North,360,3.4,3.4,97,0.03,,,0.05,37.00,VWS V14.01,2013-12-21 19:36:00,
2013-12-21 13:37:00,34.0,33.2,29.81,North,360,0.0,3.4,97,0.03,,,0.05,35.00,VWS V14.01,2013-12-21 19:37:00,
2013-12-21 13:38:00,34.0,33.2,29.80,North,360,2.3,3.4,97,0.03,,,0.05,39.00,VWS V14.01,2013-12-21 19:38:00,
2013-12-21 13:40:00,34.0,33.2,29.80,North,360,0.0,5.8,97,0.03,,,0.05,37.00,VWS V14.01,2013-12-21 19:40:00,
2013-12-21 13:41:00,34.0,33.2,29.80,North,5,5.8,5.8,97,0.03,,,0.05,37.00,VWS V14.01,2013-12-21 19:41:00,
2013-12-21 13:42:00,34.1,33.3,29.80,North,5,0.0,5.8,97,0.03,,,0.05,35.00,VWS V14.01,2013-12-21 19:42:00,
2013-12-21 13:43:00,34.0,33.2,29.80,North,5,0.0,5.8,97,0.03,,,0.05,35.00,VWS V14.01,2013-12-21 19:43:00,
2013-12-21 13:44:00,34.0,33.2,29.80,North,5,1.1,5.8,97,0.03,,,0.05,35.00,VWS V14.01,2013-12-21 19:44:00,
2013-12-21 13:47:00,34.1,33.3,29.80,North,5,0.0,4.6,97,0.02,,,0.05,35.00,VWS V14.01,2013-12-21 19:47:00,
2013-12-21 13:48:00,34.1,33.3,29.80,North,5,3.4,4.6,97,0.02,,,0.05,35.00,VWS V14.01,2013-12-21 19:48:00,
2013-12-21 13:50:00,34.1,33.3,29.80,North,5,4.6,4.6,97,0.02,,,0.05,32.00,VWS V14.01,2013-12-21 19:50:00,
2013-12-21 13:53:00,34.1,33.3,29.80,North,5,1.1,4.6,97,0.03,,,0.06,30.00,VWS V14.01,2013-12-21 19:53:00,
2013-12-21 13:54:00,34.1,33.3,29.80,North,5,4.6,4.6,97,0.03,,,0.06,30.00,VWS V14.01,2013-12-21 19:54:00,
2013-12-21 13:55:00,34.1,33.3,29.80,North,5,3.4,4.6,97,0.03,,,0.06,28.00,VWS V14.01,2013-12-21 19:55:00,
2013-12-21 13:57:00,34.1,33.3,29.80,North,5,1.1,3.4,97,0.03,,,0.06,28.00,VWS V14.01,2013-12-21 19:57:00,
2013-12-21 13:58:00,34.1,33.3,29.80,North,5,2.3,3.4,97,0.03,,,0.06,26.00,VWS V14.01,2013-12-21 19:58:00,
2013-12-21 13:59:00,34.1,33.3,29.80,North,5,2.3,3.4,97,0.03,,,0.06,26.00,VWS V14.01,2013-12-21 19:59:00,
2013-12-21 14:00:00,34.1,33.3,29.80,North,5,0.0,3.4,97,0.03,,,0.06,26.00,VWS V14.01,2013-12-21 20:00:00,
2013-12-21 14:02:00,34.1,33.3,29.79,North,5,0.0,3.4,97,0.03,,,0.06,25.00,VWS V14.01,2013-12-21 20:02:00,
2013-12-21 14:04:00,34.1,33.3,29.80,North,5,6.9,6.9,97,0.03,,,0.06,23.00,VWS V14.01,2013-12-21 20:04:00,
2013-12-21 14:05:00,34.1,33.3,29.80,North,5,0.0,6.9,97,0.03,,,0.06,25.00,VWS V14.01,2013-12-21 20:05:00,
2013-12-21 14:06:00,34.1,33.3,29.80,North,5,0.0,2.3,97,0.03,,,0.06,25.00,VWS V14.01,2013-12-21 20:06:00,
2013-12-21 14:07:00,34.1,33.3,29.79,North,5,2.3,5.8,97,0.03,,,0.06,25.00,VWS V14.01,2013-12-21 20:07:00,
2013-12-21 14:09:00,34.1,33.3,29.78,North,5,5.8,5.8,97,0.04,,,0.07,26.00,VWS V14.01,2013-12-21 20:09:00,
2013-12-21 14:11:00,34.1,33.3,29.78,North,5,2.3,4.6,97,0.03,,,0.07,28.00,VWS V14.01,2013-12-21 20:11:00,
2013-12-21 14:12:00,34.1,33.3,29.77,North,5,1.1,4.6,97,0.03,,,0.07,30.00,VWS V14.01,2013-12-21 20:12:00,
2013-12-21 14:13:00,34.2,33.4,29.77,NE,51,6.9,6.9,97,0.03,,,0.07,30.00,VWS V14.01,2013-12-21 20:13:00,
2013-12-21 14:15:00,34.1,33.3,29.77,ENE,59,3.4,8.1,97,0.03,,,0.07,30.00,VWS V14.01,2013-12-21 20:15:00,
2013-12-21 14:16:00,34.2,33.4,29.76,ENE,59,2.3,2.3,97,0.03,,,0.07,30.00,VWS V14.01,2013-12-21 20:16:00,
2013-12-21 14:18:00,34.2,33.4,29.76,ENE,59,2.3,8.1,97,0.03,,,0.07,32.00,VWS V14.01,2013-12-21 20:18:00,
2013-12-21 14:20:00,34.2,33.4,29.75,ENE,59,2.3,8.1,97,0.03,,,0.07,35.00,VWS V14.01,2013-12-21 20:20:00,
2013-12-21 14:22:00,34.2,33.4,29.76,ENE,57,8.1,8.1,97,0.03,,,0.07,37.00,VWS V14.01,2013-12-21 20:22:00,
2013-12-21 14:23:00,34.1,33.3,29.76,NE,55,6.9,8.1,97,0.03,,,0.07,39.00,VWS V14.01,2013-12-21 20:23:00,
2013-12-21 14:24:00,34.2,33.4,29.76,NE,54,3.4,8.1,97,0.03,,,0.07,39.00,VWS V14.01,2013-12-21 20:24:00,
2013-12-21 14:25:00,34.1,33.3,29.76,NE,54,3.4,8.1,97,0.03,,,0.07,42.00,VWS V14.01,2013-12-21 20:25:00,
2013-12-21 14:27:00,34.2,33.4,29.76,NE,54,2.3,6.9,97,0.02,,,0.07,35.00,VWS V14.01,2013-12-21 20:27:00,
2013-12-21 14:28:00,34.2,33.4,29.76,NE,51,3.4,6.9,97,0.02,,,0.07,33.00,VWS V14.01,2013-12-21 20:28:00,
2013-12-21 14:29:00,34.2,33.4,29.76,NE,51,1.1,6.9,97,0.02,,,0.07,33.00,VWS V14.01,2013-12-21 20:29:00,
2013-12-21 14:30:00,34.2,33.4,29.76,NE,51,2.3,6.9,97,0.02,,,0.07,32.00,VWS V14.01,2013-12-21 20:30:00,
2013-12-21 14:31:00,34.2,33.4,29.76,NE,48,2.3,5.8,97,0.02,,,0.07,33.00,VWS V14.01,2013-12-21 20:31:00,
2013-12-21 14:32:00,34.2,33.4,29.76,NE,49,1.1,9.2,97,0.02,,,0.07,33.00,VWS V14.01,2013-12-21 20:32:00,
2013-12-21 14:33:00,34.2,33.4,29.76,NE,49,5.8,9.2,97,0.02,,,0.07,33.00,VWS V14.01,2013-12-21 20:33:00,
2013-12-21 14:34:00,34.2,33.4,29.76,NE,49,4.6,9.2,97,0.02,,,0.07,33.00,VWS V14.01,2013-12-21 20:34:00,
2013-12-21 14:36:00,34.2,33.4,29.76,NE,49,5.8,5.8,97,0.02,,,0.07,32.00,VWS V14.01,2013-12-21 20:36:00,
2013-12-21 14:38:00,34.2,33.4,29.76,NE,49,2.3,5.8,97,0.02,,,0.07,30.00,VWS V14.01,2013-12-21 20:38:00,
2013-12-21 14:39:00,34.2,33.4,29.76,NE,49,1.1,5.8,97,0.02,,,0.07,30.00,VWS V14.01,2013-12-21 20:39:00,
2013-12-21 14:41:00,34.2,33.4,29.76,NE,49,2.3,3.4,97,0.02,,,0.07,32.00,VWS V14.01,2013-12-21 20:41:00,
2013-12-21 14:42:00,34.2,33.4,29.76,NE,49,3.4,5.8,97,0.02,,,0.07,32.00,VWS V14.01,2013-12-21 20:42:00,
2013-12-21 14:43:00,34.2,33.4,29.76,NE,49,2.3,5.8,97,0.02,,,0.07,30.00,VWS V14.01,2013-12-21 20:43:00,
2013-12-21 14:44:00,34.2,33.4,29.76,NE,49,4.6,5.8,97,0.02,,,0.07,28.00,VWS V14.01,2013-12-21 20:44:00,
2013-12-21 14:45:00,34.2,33.4,29.76,NE,49,1.1,5.8,97,0.02,,,0.07,25.00,VWS V14.01,2013-12-21 20:45:00,
2013-12-21 14:47:00,34.3,33.5,29.76,NE,49,0.0,4.6,97,0.02,,,0.07,23.00,VWS V14.01,2013-12-21 20:47:00,
2013-12-21 14:48:00,34.2,33.4,29.76,NE,49,5.8,5.8,97,0.02,,,0.07,23.00,VWS V14.01,2013-12-21 20:48:00,
2013-12-21 14:49:00,34.3,33.5,29.76,NE,48,6.9,9.2,97,0.02,,,0.07,23.00,VWS V14.01,2013-12-21 20:49:00,
2013-12-21 14:50:00,34.3,33.5,29.76,NE,48,5.8,9.2,97,0.02,,,0.07,23.00,VWS V14.01,2013-12-21 20:50:00,
2013-12-21 14:52:00,34.3,33.5,29.76,NE,49,5.8,8.1,97,0.01,,,0.07,23.00,VWS V14.01,2013-12-21 20:52:00,
2013-12-21 14:54:00,34.3,33.5,29.76,NE,49,2.3,8.1,97,0.01,,,0.07,25.00,VWS V14.01,2013-12-21 20:54:00,
2013-12-21 14:55:00,34.3,33.5,29.76,NE,49,3.4,8.1,97,0.01,,,0.07,23.00,VWS V14.01,2013-12-21 20:55:00,
2013-12-21 14:56:00,34.3,33.5,29.76,NE,49,2.3,5.8,97,0.01,,,0.07,25.00,VWS V14.01,2013-12-21 20:56:00,
2013-12-21 14:58:00,34.3,33.5,29.76,NE,49,4.6,5.8,97,0.01,,,0.07,21.00,VWS V14.01,2013-12-21 20:58:00,
2013-12-21 14:59:00,34.3,33.5,29.76,NE,48,1.1,5.8,97,0.01,,,0.07,19.00,VWS V14.01,2013-12-21 20:59:00,
2013-12-21 15:00:00,34.3,33.5,29.76,NE,48,1.1,5.8,97,0.01,,,0.07,18.00,VWS V14.01,2013-12-21 21:00:00,
2013-12-21 15:01:00,34.3,33.5,29.76,NE,49,3.4,3.4,97,0.01,,,0.07,18.00,VWS V14.01,2013-12-21 21:01:00,
2013-12-21 15:03:00,34.3,33.5,29.76,NE,46,5.8,6.9,97,0.01,,,0.07,16.00,VWS V14.01,2013-12-21 21:03:00,
2013-12-21 15:04:00,34.3,33.5,29.77,NE,49,3.4,6.9,97,0.01,,,0.07,14.00,VWS V14.01,2013-12-21 21:04:00,
2013-12-21 15:05:00,34.3,33.5,29.77,NE,49,3.4,4.6,97,0.01,,,0.07,14.00,VWS V14.01,2013-12-21 21:05:00,
2013-12-21 15:06:00,34.3,33.5,29.77,NE,49,4.6,6.9,97,0.01,,,0.07,14.00,VWS V14.01,2013-12-21 21:06:00,
2013-12-21 15:07:00,34.3,33.5,29.77,NE,49,0.0,6.9,97,0.01,,,0.07,14.00,VWS V14.01,2013-12-21 21:07:00,
2013-12-21 15:09:00,34.3,33.5,29.77,NE,49,4.6,6.9,97,0.01,,,0.07,12.00,VWS V14.01,2013-12-21 21:09:00,
2013-12-21 15:11:00,34.3,33.5,29.77,NE,52,3.4,4.6,97,0.00,,,0.07,12.00,VWS V14.01,2013-12-21 21:11:00,
2013-12-21 15:12:00,34.3,33.5,29.77,NE,52,4.6,4.6,97,0.00,,,0.07,12.00,VWS V14.01,2013-12-21 21:12:00,
2013-12-21 15:14:00,34.3,33.5,29.77,NE,52,2.3,4.6,97,0.01,,,0.08,12.00,VWS V14.01,2013-12-21 21:14:00,
2013-12-21 15:16:00,34.3,33.5,29.76,NE,52,4.6,4.6,97,0.01,,,0.08,12.00,VWS V14.01,2013-12-21 21:16:00,
2013-12-21 15:18:00,34.3,33.5,29.76,NE,52,3.4,6.9,97,0.01,,,0.08,12.00,VWS V14.01,2013-12-21 21:18:00,
2013-12-21 15:19:00,34.3,33.5,29.76,NE,52,0.0,6.9,97,0.01,,,0.08,12.00,VWS V14.01,2013-12-21 21:19:00,
2013-12-21 15:22:00,34.3,33.5,29.76,NE,52,4.6,6.9,97,0.02,,,0.09,12.00,VWS V14.01,2013-12-21 21:22:00,
2013-12-21 15:23:00,34.3,33.5,29.76,NE,51,4.6,6.9,97,0.02,,,0.09,14.00,VWS V14.01,2013-12-21 21:23:00,
2013-12-21 15:24:00,34.3,33.5,29.77,NE,42,2.3,6.9,97,0.02,,,0.09,14.00,VWS V14.01,2013-12-21 21:24:00,
2013-12-21 15:29:00,34.3,33.5,29.77,NE,39,3.4,8.1,97,0.05,,,0.12,12.00,VWS V14.01,2013-12-21 21:29:00,
2013-12-21 15:30:00,34.3,33.5,29.77,NE,39,1.1,8.1,97,0.05,,,0.12,12.00,VWS V14.01,2013-12-21 21:30:00,
2013-12-21 15:31:00,34.3,33.5,29.77,NE,40,3.4,6.9,97,0.05,,,0.12,12.00,VWS V14.01,2013-12-21 21:31:00,
2013-12-21 15:34:00,34.3,33.5,29.77,NE,36,1.1,6.9,97,0.05,,,0.12,11.00,VWS V14.01,2013-12-21 21:34:00,
2013-12-21 15:35:00,34.3,33.5,29.76,NE,36,2.3,6.9,97,0.05,,,0.12,11.00,VWS V14.01,2013-12-21 21:35:00,
2013-12-21 15:36:00,34.3,33.5,29.76,NE,36,3.4,4.6,97,0.05,,,0.12,11.00,VWS V14.01,2013-12-21 21:36:00,
2013-12-21 15:37:00,34.3,33.5,29.76,NE,36,4.6,4.6,97,0.05,,,0.12,11.00,VWS V14.01,2013-12-21 21:37:00,
2013-12-21 15:41:00,34.3,33.5,29.76,NNE,30,2.3,6.9,97,0.05,,,0.12,11.00,VWS V14.01,2013-12-21 21:41:00,
2013-12-21 15:42:00,34.4,33.6,29.75,NE,35,5.8,6.9,97,0.05,,,0.12,11.00,VWS V14.01,2013-12-21 21:42:00,
2013-12-21 15:45:00,34.3,33.5,29.75,NE,44,4.6,6.9,97,0.05,,,0.12,11.00,VWS V14.01,2013-12-21 21:45:00,
2013-12-21 15:46:00,34.3,33.5,29.75,NE,39,2.3,6.9,97,0.05,,,0.12,11.00,VWS V14.01,2013-12-21 21:46:00,
2013-12-21 15:47:00,34.3,33.5,29.76,NE,36,2.3,6.9,97,0.05,,,0.12,9.00,VWS V14.01,2013-12-21 21:47:00,
2013-12-21 15:50:00,34.4,33.6,29.76,NNE,33,4.6,8.1,97,0.05,,,0.12,9.00,VWS V14.01,2013-12-21 21:50:00,
2013-12-21 15:51:00,34.4,33.6,29.76,NE,46,2.3,9.2,97,0.05,,,0.12,7.00,VWS V14.01,2013-12-21 21:51:00,
2013-12-21 15:52:00,34.4,33.6,29.76,NE,37,2.3,9.2,97,0.05,,,0.12,7.00,VWS V14.01,2013-12-21 21:52:00,
2013-12-21 15:53:00,34.4,33.6,29.76,NE,43,2.3,9.2,97,0.05,,,0.12,7.00,VWS V14.01,2013-12-21 21:53:00,
2013-12-21 15:56:00,34.4,33.6,29.76,NE,38,5.8,5.8,97,0.06,,,0.13,5.00,VWS V14.01,2013-12-21 21:56:00,
2013-12-21 15:57:00,34.4,33.6,29.76,NE,38,1.1,5.8,97,0.06,,,0.13,0.00,VWS V14.01,2013-12-21 21:57:00,
2013-12-21 15:58:00,34.4,33.6,29.76,NE,42,1.1,5.8,97,0.06,,,0.13,0.00,VWS V14.01,2013-12-21 21:58:00,
2013-12-21 15:59:00,34.4,33.6,29.76,NNE,28,5.8,8.1,97,0.06,,,0.13,0.00,VWS V14.01,2013-12-21 21:59:00,
2013-12-21 16:01:00,34.4,33.6,29.76,NNE,16,5.8,6.9,97,0.06,,,0.13,0.00,VWS V14.01,2013-12-21 22:01:00,
2013-12-21 16:02:00,34.4,33.6,29.76,NNE,33,2.3,6.9,97,0.06,,,0.13,0.00,VWS V14.01,2013-12-21 22:02:00,
2013-12-21 16:03:00,34.4,33.6,29.76,NNE,31,3.4,6.9,97,0.06,,,0.13,0.00,VWS V14.01,2013-12-21 22:03:00,
2013-12-21 16:05:00,34.4,33.6,29.76,NNE,32,3.4,6.9,97,0.06,,,0.13,0.00,VWS V14.01,2013-12-21 22:05:00,
2013-12-21 16:07:00,34.4,33.6,29.76,NE,40,0.0,8.1,97,0.06,,,0.13,0.00,VWS V14.01,2013-12-21 22:07:00,
2013-12-21 16:08:00,34.4,33.6,29.76,NE,48,4.6,8.1,97,0.06,,,0.13,0.00,VWS V14.01,2013-12-21 22:08:00,
2013-12-21 16:09:00,34.4,33.6,29.76,NE,51,4.6,10.3,97,0.06,,,0.13,0.00,VWS V14.01,2013-12-21 22:09:00,
2013-12-21 16:10:00,34.4,33.6,29.76,NE,38,4.6,10.3,97,0.06,,,0.13,0.00,VWS V14.01,2013-12-21 22:10:00,
2013-12-21 16:12:00,34.5,33.7,29.76,NE,50,0.0,8.1,97,0.06,,,0.13,0.00,VWS V14.01,2013-12-21 22:12:00,
2013-12-21 16:13:00,34.5,33.7,29.76,NE,45,3.4,8.1,97,0.06,,,0.13,0.00,VWS V14.01,2013-12-21 22:13:00,
2013-12-21 16:15:00,34.5,33.7,29.76,NE,45,0.0,8.1,97,0.06,,,0.13,0.00,VWS V14.01,2013-12-21 22:15:00,
2013-12-21 16:18:00,34.5,33.7,29.77,NE,45,2.3,8.1,97,0.06,,,0.14,0.00,VWS V14.01,2013-12-21 22:18:00,
2013-12-21 16:19:00,34.5,33.7,29.77,NE,44,2.3,8.1,97,0.06,,,0.14,0.00,VWS V14.01,2013-12-21 22:19:00,
2013-12-21 16:20:00,34.5,33.7,29.77,NE,44,1.1,8.1,97,0.06,,,0.14,0.00,VWS V14.01,2013-12-21 22:20:00,
2013-12-21 16:24:00,34.5,33.7,29.77,NE,56,2.3,9.2,97,0.09,,,0.17,0.00,VWS V14.01,2013-12-21 22:24:00,
2013-12-21 16:25:00,34.5,33.7,29.77,NE,50,3.4,9.2,97,0.09,,,0.17,0.00,VWS V14.01,2013-12-21 22:25:00,
2013-12-21 16:26:00,34.5,33.7,29.77,NE,36,4.6,8.1,97,0.05,,,0.17,0.00,VWS V14.01,2013-12-21 22:26:00,
2013-12-21 16:29:00,34.5,33.7,29.78,NE,55,3.4,8.1,97,0.05,,,0.17,0.00,VWS V14.01,2013-12-21 22:29:00,
2013-12-21 16:30:00,34.6,33.8,29.78,NE,53,5.8,8.1,97,0.05,,,0.17,0.00,VWS V14.01,2013-12-21 22:30:00,
2013-12-21 16:31:00,34.5,33.7,29.78,NE,53,3.4,5.8,97,0.05,,,0.17,0.00,VWS V14.01,2013-12-21 22:31:00,
2013-12-21 16:32:00,34.6,33.8,29.78,NE,48,3.4,6.9,97,0.05,,,0.17,0.00,VWS V14.01,2013-12-21 22:32:00,
2013-12-21 16:35:00,34.5,33.7,29.78,ENE,59,1.1,6.9,97,0.06,,,0.18,0.00,VWS V14.01,2013-12-21 22:35:00,
2013-12-21 16:36:00,34.5,33.7,29.78,ENE,59,4.6,4.6,97,0.06,,,0.18,0.00,VWS V14.01,2013-12-21 22:36:00,
2013-12-21 16:37:00,34.5,33.7,29.78,ENE,59,2.3,5.8,97,0.06,,,0.18,0.00,VWS V14.01,2013-12-21 22:37:00,
2013-12-21 16:38:00,34.5,33.7,29.78,ENE,59,2.3,5.8,97,0.06,,,0.18,0.00,VWS V14.01,2013-12-21 22:38:00,
2013-12-21 16:41:00,34.6,33.8,29.78,NE,54,5.8,5.8,97,0.07,,,0.19,0.00,VWS V14.01,2013-12-21 22:41:00,
2013-12-21 16:42:00,34.6,33.8,29.78,ENE,61,4.6,5.8,97,0.07,,,0.19,0.00,VWS V14.01,2013-12-21 22:42:00,
2013-12-21 16:43:00,34.6,33.8,29.78,NE,53,5.8,5.8,97,0.07,,,0.19,0.00,VWS V14.01,2013-12-21 22:43:00,
2013-12-21 16:44:00,34.6,33.8,29.78,NE,53,1.1,5.8,97,0.07,,,0.19,0.00,VWS V14.01,2013-12-21 22:44:00,
2013-12-21 16:47:00,34.6,33.8,29.78,NE,55,5.8,9.2,97,0.08,,,0.20,0.00,VWS V14.01,2013-12-21 22:47:00,
2013-12-21 16:48:00,34.6,33.8,29.78,NE,55,2.3,9.2,97,0.08,,,0.20,0.00,VWS V14.01,2013-12-21 22:48:00,
2013-12-21 16:49:00,34.6,33.8,29.77,NNE,33,3.4,9.2,97,0.08,,,0.20,0.00,VWS V14.01,2013-12-21 22:49:00,
2013-12-21 16:52:00,34.6,33.8,29.77,NE,50,4.6,5.8,97,0.08,,,0.20,0.00,VWS V14.01,2013-12-21 22:52:00,
2013-12-21 16:53:00,34.6,33.8,29.77,NE,46,5.8,5.8,97,0.09,,,0.21,0.00,VWS V14.01,2013-12-21 22:53:00,
2013-12-21 16:54:00,34.6,33.8,29.77,NE,46,4.6,5.8,97,0.09,,,0.21,0.00,VWS V14.01,2013-12-21 22:54:00,
2013-12-21 16:55:00,34.6,33.8,29.77,NE,49,4.6,5.8,97,0.09,,,0.21,0.00,VWS V14.01,2013-12-21 22:55:00,
2013-12-21 16:58:00,34.6,33.8,29.77,NE,42,4.6,6.9,97,0.08,,,0.21,0.00,VWS V14.01,2013-12-21 22:58:00,
2013-12-21 16:59:00,34.6,33.8,29.77,NE,49,1.1,6.9,97,0.08,,,0.21,0.00,VWS V14.01,2013-12-21 22:59:00,
2013-12-21 17:00:00,34.6,33.8,29.77,NE,55,3.4,9.2,97,0.08,,,0.21,0.00,VWS V14.01,2013-12-21 23:00:00,
2013-12-21 17:01:00,34.6,33.8,29.77,NE,48,4.6,11.5,97,0.09,,,0.22,0.00,VWS V14.01,2013-12-21 23:01:00,
2013-12-21 17:04:00,34.6,33.8,29.77,NE,42,4.6,11.5,97,0.09,,,0.22,0.00,VWS V14.01,2013-12-21 23:04:00,
2013-12-21 17:05:00,34.6,33.8,29.77,ENE,67,12.6,12.6,97,0.09,,,0.22,0.00,VWS V14.01,2013-12-21 23:05:00,
2013-12-21 17:07:00,34.7,33.9,29.78,ENE,72,2.3,9.2,97,0.09,,,0.22,0.00,VWS V14.01,2013-12-21 23:07:00,
2013-12-21 17:10:00,34.7,33.9,29.78,ENE,63,4.6,11.5,97,0.10,,,0.23,0.00,VWS V14.01,2013-12-21 23:10:00,
2013-12-21 17:11:00,34.7,33.9,29.78,NE,49,1.1,3.4,97,0.10,,,0.23,0.00,VWS V14.01,2013-12-21 23:11:00,
2013-12-21 17:12:00,34.6,33.8,29.78,NE,50,6.9,12.6,97,0.10,,,0.23,0.00,VWS V14.01,2013-12-21 23:12:00,
2013-12-21 17:13:00,34.7,33.9,29.78,ENE,59,4.6,12.6,97,0.10,,,0.23,0.00,VWS V14.01,2013-12-21 23:13:00,
2013-12-21 17:15:00,34.7,33.9,29.78,NE,48,4.6,12.6,97,0.10,,,0.23,0.00,VWS V14.01,2013-12-21 23:15:00,
2013-12-21 17:16:00,34.7,33.9,29.78,NE,51,3.4,5.8,97,0.11,,,0.24,0.00,VWS V14.01,2013-12-21 23:16:00,
2013-12-21 17:18:00,34.7,33.9,29.78,NE,36,6.9,10.3,97,0.12,,,0.25,0.00,VWS V14.01,2013-12-21 23:18:00,
2013-12-21 17:19:00,34.7,33.9,29.78,NE,38,2.3,10.3,97,0.12,,,0.25,0.00,VWS V14.01,2013-12-21 23:19:00,
2013-12-21 17:20:00,34.7,33.9,29.78,East,86,3.4,11.5,97,0.12,,,0.25,0.00,VWS V14.01,2013-12-21 23:20:00,
2013-12-21 17:21:00,34.7,33.9,29.78,NE,56,5.8,5.8,97,0.09,,,0.25,0.00,VWS V14.01,2013-12-21 23:21:00,
2013-12-21 17:23:00,34.7,33.9,29.78,NE,49,8.1,8.1,97,0.09,,,0.25,0.00,VWS V14.01,2013-12-21 23:23:00,
2013-12-21 17:24:00,34.7,33.9,29.78,NNE,27,8.1,12.6,97,0.09,,,0.26,0.00,VWS V14.01,2013-12-21 23:24:00,
2013-12-21 17:25:00,34.7,33.9,29.78,ENE,78,5.8,12.6,97,0.10,,,0.26,0.00,VWS V14.01,2013-12-21 23:25:00,
2013-12-21 17:26:00,34.7,33.9,29.78,ENE,66,10.3,10.3,97,0.09,,,0.26,0.00,VWS V14.01,2013-12-21 23:26:00,
2013-12-21 17:27:00,34.7,33.9,29.77,NE,54,4.6,10.3,97,0.09,,,0.26,0.00,VWS V14.01,2013-12-21 23:27:00,
2013-12-21 17:29:00,34.7,33.9,29.77,NE,40,3.4,11.5,97,0.09,,,0.26,0.00,VWS V14.01,2013-12-21 23:29:00,
2013-12-21 17:30:00,34.7,33.9,29.77,NE,40,3.4,11.5,97,0.09,,,0.26,0.00,VWS V14.01,2013-12-21 23:30:00,
2013-12-21 17:31:00,34.6,33.8,29.78,NE,38,3.4,4.6,97,0.09,,,0.26,0.00,VWS V14.01,2013-12-21 23:31:00,
2013-12-21 17:33:00,34.7,33.9,29.78,NE,42,3.4,10.3,97,0.09,,,0.26,0.00,VWS V14.01,2013-12-21 23:33:00,
2013-12-21 17:34:00,34.6,33.8,29.78,NE,43,2.3,10.3,97,0.10,,,0.27,0.00,VWS V14.01,2013-12-21 23:34:00,
2013-12-21 17:35:00,34.7,33.9,29.78,ENE,59,4.6,10.3,97,0.10,,,0.27,0.00,VWS V14.01,2013-12-21 23:35:00,
2013-12-21 17:36:00,34.6,33.8,29.78,NNE,30,5.8,8.1,97,0.09,,,0.27,0.00,VWS V14.01,2013-12-21 23:36:00,
2013-12-21 17:39:00,34.6,33.8,29.78,NE,46,10.3,10.3,97,0.09,,,0.27,0.00,VWS V14.01,2013-12-21 23:39:00,
2013-12-21 17:40:00,34.6,33.8,29.78,East,82,3.4,10.3,97,0.09,,,0.27,0.00,VWS V14.01,2013-12-21 23:40:00,
2013-12-21 17:41:00,34.6,33.8,29.78,NE,53,5.8,5.8,97,0.09,,,0.28,0.00,VWS V14.01,2013-12-21 23:41:00,
2013-12-21 17:46:00,34.6,33.8,29.78,NE,36,5.8,5.8,97,0.09,,,0.28,0.00,VWS V14.01,2013-12-21 23:46:00,
2013-12-21 17:47:00,34.7,33.9,29.78,ENE,57,3.4,6.9,97,0.09,,,0.28,0.00,VWS V14.01,2013-12-21 23:47:00,
2013-12-21 17:49:00,34.6,33.8,29.78,NE,46,6.9,11.5,97,0.10,,,0.29,0.00,VWS V14.01,2013-12-21 23:49:00,
2013-12-21 17:51:00,34.6,33.8,29.78,NE,49,10.3,10.3,97,0.09,,,0.29,0.00,VWS V14.01,2013-12-21 23:51:00,
2013-12-21 17:52:00,34.6,33.8,29.78,ENE,63,3.4,10.3,97,0.09,,,0.29,0.00,VWS V14.01,2013-12-21 23:52:00,
2013-12-21 17:57:00,34.6,33.8,29.78,NE,52,0.0,4.6,97,0.09,,,0.30,0.00,VWS V14.01,2013-12-21 23:57:00,
2013-12-21 17:58:00,34.6,33.8,29.77,NNE,23,8.1,11.5,97,0.09,,,0.30,0.00,VWS V14.01,2013-12-21 23:58:00,
2013-12-21 17:59:00,34.6,33.8,29.77,NE,53,2.3,11.5,97,0.10,,,0.31,0.00,VWS V14.01,2013-12-21 23:59:00,
2013-12-21 18:02:00,34.6,33.8,29.77,NE,51,6.9,11.5,97,0.10,,,0.31,0.00,VWS V14.01,2013-12-22 00:02:00,
2013-12-21 18:04:00,34.6,33.8,29.77,ENE,70,2.3,11.5,97,0.10,,,0.31,0.00,VWS V14.01,2013-12-22 00:04:00,
2013-12-21 18:05:00,34.6,33.8,29.77,NE,51,2.3,11.5,97,0.10,,,0.31,0.00,VWS V14.01,2013-12-22 00:05:00,
2013-12-21 18:06:00,34.6,33.8,29.77,ENE,65,3.4,6.9,97,0.09,,,0.31,0.00,VWS V14.01,2013-12-22 00:06:00,
2013-12-21 18:07:00,34.6,33.8,29.76,NNE,30,2.3,8.1,97,0.10,,,0.32,0.00,VWS V14.01,2013-12-22 00:07:00,
2013-12-21 18:09:00,34.6,33.8,29.76,NE,46,4.6,9.2,97,0.10,,,0.32,0.00,VWS V14.01,2013-12-22 00:09:00,
2013-12-21 18:10:00,34.6,33.8,29.76,NE,41,4.6,9.2,97,0.10,,,0.32,0.00,VWS V14.01,2013-12-22 00:10:00,
2013-12-21 18:11:00,34.6,33.8,29.76,NE,53,5.8,8.1,97,0.09,,,0.32,0.00,VWS V14.01,2013-12-22 00:11:00,
2013-12-21 18:12:00,34.6,33.8,29.76,ENE,60,5.8,10.3,97,0.09,,,0.32,0.00,VWS V14.01,2013-12-22 00:12:00,
2013-12-21 18:13:00,34.6,33.8,29.76,NE,36,6.9,10.3,97,0.09,,,0.32,0.00,VWS V14.01,2013-12-22 00:13:00,
2013-12-21 18:15:00,34.6,33.8,29.75,NNE,27,8.1,10.3,97,0.09,,,0.32,0.00,VWS V14.01,2013-12-22 00:15:00,
2013-12-21 18:17:00,34.6,33.8,29.76,ENE,67,5.8,8.1,97,0.10,,,0.33,0.00,VWS V14.01,2013-12-22 00:17:00,
2013-12-21 18:19:00,34.6,33.8,29.75,ENE,59,11.5,11.5,97,0.10,,,0.33,0.00,VWS V14.01,2013-12-22 00:19:00,
2013-12-21 18:20:00,34.5,33.7,29.76,East,89,3.4,11.5,97,0.10,,,0.33,0.00,VWS V14.01,2013-12-22 00:20:00,
2013-12-21 18:21:00,34.6,33.8,29.76,NE,55,5.8,5.8,97,0.08,,,0.33,0.00,VWS V14.01,2013-12-22 00:21:00,
2013-12-21 18:22:00,34.5,33.7,29.76,NE,40,14.9,14.9,97,0.08,,,0.33,0.00,VWS V14.01,2013-12-22 00:22:00,
2013-12-21 18:24:00,34.5,33.7,29.75,NE,53,4.6,14.9,97,0.08,,,0.33,0.00,VWS V14.01,2013-12-22 00:24:00,
2013-12-21 18:25:00,34.6,33.8,29.75,ENE,72,11.5,14.9,97,0.08,,,0.33,0.00,VWS V14.01,2013-12-22 00:25:00,
2013-12-21 18:26:00,34.6,33.8,29.75,NE,54,4.6,6.9,97,0.07,,,0.33,0.00,VWS V14.01,2013-12-22 00:26:00,
2013-12-21 18:27:00,34.5,33.7,29.75,NNE,32,4.6,9.2,97,0.07,,,0.33,0.00,VWS V14.01,2013-12-22 00:27:00,
2013-12-21 18:29:00,34.5,33.7,29.75,NE,41,3.4,9.2,97,0.08,,,0.34,0.00,VWS V14.01,2013-12-22 00:29:00,
2013-12-21 18:32:00,34.5,33.7,29.75,NE,52,3.4,11.5,97,0.08,,,0.34,0.00,VWS V14.01,2013-12-22 00:32:00,
2013-12-21 18:33:00,34.5,33.7,29.75,ENE,57,5.8,12.6,97,0.08,,,0.34,0.00,VWS V14.01,2013-12-22 00:33:00,
2013-12-21 18:34:00,34.5,33.7,29.75,ENE,61,5.8,12.6,97,0.08,,,0.34,0.00,VWS V14.01,2013-12-22 00:34:00,
2013-12-21 18:35:00,34.5,33.7,29.75,NE,56,5.8,12.6,97,0.08,,,0.34,0.00,VWS V14.01,2013-12-22 00:35:00,
2013-12-21 18:39:00,34.5,33.7,29.74,NE,44,9.2,14.9,97,0.07,,,0.34,0.00,VWS V14.01,2013-12-22 00:39:00,
2013-12-21 18:41:00,34.5,33.7,29.74,NE,42,10.3,10.3,97,0.07,,,0.34,0.00,VWS V14.01,2013-12-22 00:41:00,
2013-12-21 18:44:00,34.5,33.7,29.74,ENE,69,5.8,13.8,97,0.07,,,0.34,0.00,VWS V14.01,2013-12-22 00:44:00,
2013-12-21 18:45:00,34.5,33.7,29.74,NE,56,5.8,13.8,97,0.07,,,0.34,0.00,VWS V14.01,2013-12-22 00:45:00,
2013-12-21 18:47:00,34.5,33.7,29.74,NE,50,8.1,13.8,97,0.07,,,0.35,0.00,VWS V14.01,2013-12-22 00:47:00,
2013-12-21 18:48:00,34.5,33.7,29.74,NE,43,6.9,13.8,97,0.07,,,0.35,0.00,VWS V14.01,2013-12-22 00:48:00,
2013-12-21 18:50:00,34.5,33.7,29.74,ENE,66,8.1,13.8,97,0.07,,,0.35,0.00,VWS V14.01,2013-12-22 00:50:00,
2013-12-21 18:52:00,34.5,33.7,29.73,NE,44,4.6,8.1,97,0.06,,,0.35,0.00,VWS V14.01,2013-12-22 00:52:00,
2013-12-21 18:53:00,34.5,33.7,29.73,NNE,26,6.9,8.1,97,0.06,,,0.35,0.00,VWS V14.01,2013-12-22 00:53:00,
2013-12-21 18:55:00,34.5,33.7,29.73,NE,49,12.6,12.6,97,0.06,,,0.35,0.00,VWS V14.01,2013-12-22 00:55:00,
2013-12-21 18:56:00,34.5,33.7,29.73,NE,54,9.2,14.9,97,0.06,,,0.36,0.00,VWS V14.01,2013-12-22 00:56:00,
2013-12-21 18:57:00,34.5,33.7,29.73,ENE,63,10.3,14.9,97,0.06,,,0.36,0.00,VWS V14.01,2013-12-22 00:57:00,
2013-12-21 18:58:00,34.5,33.7,29.73,ENE,66,9.2,14.9,97,0.06,,,0.36,0.00,VWS V14.01,2013-12-22 00:58:00,
2013-12-21 19:00:00,34.5,33.7,29.73,NE,41,3.4,14.9,97,0.06,,,0.36,0.00,VWS V14.01,2013-12-22 01:00:00,
2013-12-21 19:01:00,34.5,33.7,29.73,NNE,18,6.9,6.9,97,0.05,,,0.36,0.00,VWS V14.01,2013-12-22 01:01:00,
2013-12-21 19:02:00,34.5,33.7,29.73,NE,52,2.3,12.6,97,0.05,,,0.36,0.00,VWS V14.01,2013-12-22 01:02:00,
2013-12-21 19:05:00,34.5,33.7,29.72,NNE,25,10.3,12.6,97,0.05,,,0.36,0.00,VWS V14.01,2013-12-22 01:05:00,
2013-12-21 19:06:00,34.5,33.7,29.72,ENE,65,3.4,5.8,97,0.05,,,0.36,0.00,VWS V14.01,2013-12-22 01:06:00,
2013-12-21 19:07:00,34.4,33.6,29.72,ENE,65,4.6,11.5,97,0.06,,,0.37,0.00,VWS V14.01,2013-12-22 01:07:00,
2013-12-21 19:10:00,34.4,33.6,29.72,NE,54,8.1,12.6,97,0.06,,,0.37,0.00,VWS V14.01,2013-12-22 01:10:00,
2013-12-21 19:11:00,34.4,33.6,29.71,NNE,19,9.2,9.2,97,0.05,,,0.37,0.00,VWS V14.01,2013-12-22 01:11:00,
2013-12-21 19:13:00,34.4,33.6,29.71,NNE,17,2.3,11.5,97,0.05,,,0.37,0.00,VWS V14.01,2013-12-22 01:13:00,
2013-12-21 19:15:00,34.4,33.6,29.71,ENE,74,0.0,12.6,97,0.05,,,0.37,0.00,VWS V14.01,2013-12-22 01:15:00,
2013-12-21 19:17:00,34.4,33.6,29.70,NE,49,5.8,9.2,97,0.05,,,0.37,0.00,VWS V14.01,2013-12-22 01:17:00,
2013-12-21 19:18:00,34.4,33.6,29.70,NE,46,8.1,10.3,97,0.06,,,0.38,0.00,VWS V14.01,2013-12-22 01:18:00,
2013-12-21 19:20:00,34.4,33.6,29.70,ENE,65,9.2,14.9,97,0.06,,,0.38,0.00,VWS V14.01,2013-12-22 01:20:00,
2013-12-21 19:21:00,34.4,33.6,29.70,NNE,26,5.8,12.6,97,0.05,,,0.38,0.00,VWS V14.01,2013-12-22 01:21:00,
2013-12-21 19:22:00,34.4,33.6,29.70,ENE,78,9.2,12.6,97,0.05,,,0.38,0.00,VWS V14.01,2013-12-22 01:22:00,
2013-12-21 19:23:00,34.4,33.6,29.70,NE,55,8.1,12.6,97,0.05,,,0.38,0.00,VWS V14.01,2013-12-22 01:23:00,
2013-12-21 19:24:00,34.3,33.5,29.69,East,98,3.4,12.6,97,0.05,,,0.38,0.00,VWS V14.01,2013-12-22 01:24:00,
2013-12-21 19:27:00,34.3,33.5,29.69,NE,35,3.4,9.2,97,0.05,,,0.38,0.00,VWS V14.01,2013-12-22 01:27:00,
2013-12-21 19:28:00,34.4,33.6,29.69,NNE,30,5.8,9.2,97,0.06,,,0.39,0.00,VWS V14.01,2013-12-22 01:28:00,
2013-12-21 19:29:00,34.3,33.5,29.69,ENE,57,3.4,9.2,97,0.06,,,0.39,0.00,VWS V14.01,2013-12-22 01:29:00,
2013-12-21 19:32:00,34.4,33.6,29.69,East,79,6.9,12.6,97,0.05,,,0.39,0.00,VWS V14.01,2013-12-22 01:32:00,
2013-12-21 19:33:00,34.4,33.6,29.69,NE,56,6.9,12.6,97,0.05,,,0.39,0.00,VWS V14.01,2013-12-22 01:33:00,
2013-12-21 19:34:00,34.4,33.6,29.69,NE,53,4.6,12.6,97,0.05,,,0.39,0.00,VWS V14.01,2013-12-22 01:34:00,
2013-12-21 19:35:00,34.4,33.6,29.69,East,90,11.5,12.6,97,0.05,,,0.39,0.00,VWS V14.01,2013-12-22 01:35:00,
2013-12-21 19:38:00,34.3,33.5,29.69,NE,44,6.9,13.8,97,0.06,,,0.40,0.00,VWS V14.01,2013-12-22 01:38:00,
2013-12-21 19:39:00,34.4,33.6,29.69,ENE,57,4.6,13.8,97,0.06,,,0.40,0.00,VWS V14.01,2013-12-22 01:39:00,
2013-12-21 19:43:00,34.3,33.5,29.69,East,80,5.8,11.5,97,0.06,,,0.40,0.00,VWS V14.01,2013-12-22 01:43:00,
2013-12-21 19:44:00,34.3,33.5,29.69,NE,37,10.3,11.5,97,0.06,,,0.40,0.00,VWS V14.01,2013-12-22 01:44:00,
2013-12-21 19:49:00,34.3,33.5,29.69,NE,49,6.9,9.2,97,0.05,,,0.40,0.00,VWS V14.01,2013-12-22 01:49:00,
2013-12-21 19:50:00,34.3,33.5,29.69,ENE,78,2.3,9.2,97,0.05,,,0.40,0.00,VWS V14.01,2013-12-22 01:50:00,
2013-12-21 19:51:00,34.3,33.5,29.69,ENE,59,2.3,2.3,97,0.06,,,0.41,0.00,VWS V14.01,2013-12-22 01:51:00,
2013-12-21 19:54:00,34.3,33.5,29.69,NE,43,10.3,12.6,97,0.06,,,0.41,0.00,VWS V14.01,2013-12-22 01:54:00,
2013-12-21 19:55:00,34.3,33.5,29.69,NNE,27,8.1,12.6,97,0.06,,,0.41,0.00,VWS V14.01,2013-12-22 01:55:00,
2013-12-21 19:56:00,34.3,33.5,29.69,NNE,23,4.6,11.5,97,0.05,,,0.41,0.00,VWS V14.01,2013-12-22 01:56:00,
2013-12-21 19:59:00,34.3,33.5,29.69,NE,44,5.8,11.5,97,0.05,,,0.41,0.00,VWS V14.01,2013-12-22 01:59:00,
2013-12-21 20:00:00,34.3,33.5,29.69,ENE,57,3.4,11.5,97,0.05,,,0.41,0.00,VWS V14.01,2013-12-22 02:00:00,
2013-12-21 20:01:00,34.3,33.5,29.69,NE,50,0.0,5.8,97,0.05,,,0.41,0.00,VWS V14.01,2013-12-22 02:01:00,
2013-12-21 20:02:00,34.3,33.5,29.69,NE,39,11.5,11.5,97,0.05,,,0.41,0.00,VWS V14.01,2013-12-22 02:02:00,
2013-12-21 20:05:00,34.3,33.5,29.69,NE,46,6.9,14.9,97,0.05,,,0.41,0.00,VWS V14.01,2013-12-22 02:05:00,
2013-12-21 20:06:00,34.3,33.5,29.69,NE,53,0.0,2.3,97,0.05,,,0.41,0.00,VWS V14.01,2013-12-22 02:06:00,
2013-12-21 20:07:00,34.3,33.5,29.70,NE,47,4.6,6.9,97,0.06,,,0.42,0.00,VWS V14.01,2013-12-22 02:07:00,
2013-12-21 20:08:00,34.3,33.5,29.70,NE,45,9.2,10.3,97,0.06,,,0.42,0.00,VWS V14.01,2013-12-22 02:08:00,
2013-12-21 20:10:00,34.3,33.5,29.69,NE,53,9.2,9.2,97,0.05,,,0.42,0.00,VWS V14.01,2013-12-22 02:10:00,
2013-12-21 20:11:00,34.3,33.5,29.69,NE,49,9.2,9.2,97,0.05,,,0.42,0.00,VWS V14.01,2013-12-22 02:11:00,
2013-12-21 20:13:00,34.3,33.5,29.69,ENE,57,2.3,9.2,97,0.05,,,0.42,0.00,VWS V14.01,2013-12-22 02:13:00,
2013-12-21 20:17:00,34.3,33.5,29.69,NE,44,11.5,12.6,97,0.05,,,0.42,0.00,VWS V14.01,2013-12-22 02:17:00,
2013-12-21 20:18:00,34.3,33.5,29.69,NE,45,2.3,12.6,97,0.05,,,0.42,0.00,VWS V14.01,2013-12-22 02:18:00,
2013-12-21 20:19:00,34.3,33.5,29.69,ENE,78,10.3,14.9,97,0.05,,,0.42,0.00,VWS V14.01,2013-12-22 02:19:00,
2013-12-21 20:22:00,34.3,33.5,29.68,ENE,57,4.6,5.8,97,0.05,,,0.43,0.00,VWS V14.01,2013-12-22 02:22:00,
2013-12-21 20:23:00,34.3,33.5,29.68,NNE,30,8.1,9.2,97,0.05,,,0.43,0.00,VWS V14.01,2013-12-22 02:23:00,
2013-12-21 20:24:00,34.3,33.5,29.68,ENE,59,8.1,16.1,97,0.05,,,0.43,0.00,VWS V14.01,2013-12-22 02:24:00,
2013-12-21 20:25:00,34.3,33.5,29.68,NNE,22,8.1,16.1,97,0.05,,,0.43,0.00,VWS V14.01,2013-12-22 02:25:00,
2013-12-21 20:27:00,34.2,33.4,29.68,NE,54,8.1,13.8,97,0.05,,,0.43,0.00,VWS V14.01,2013-12-22 02:27:00,
2013-12-21 20:28:00,34.2,33.4,29.68,NE,51,5.8,13.8,97,0.05,,,0.43,0.00,VWS V14.01,2013-12-22 02:28:00,
2013-12-21 20:30:00,34.2,33.4,29.68,ENE,76,5.8,13.8,97,0.05,,,0.43,0.00,VWS V14.01,2013-12-22 02:30:00,
2013-12-21 20:31:00,34.2,33.4,29.68,NNW,334,9.2,9.2,97,0.04,,,0.43,0.00,VWS V14.01,2013-12-22 02:31:00,
2013-12-21 20:32:00,34.2,33.4,29.68,NE,51,6.9,10.3,97,0.04,,,0.43,0.00,VWS V14.01,2013-12-22 02:32:00,
2013-12-21 20:33:00,34.2,33.4,29.67,ENE,61,14.9,14.9,97,0.04,,,0.43,0.00,VWS V14.01,2013-12-22 02:33:00,
2013-12-21 20:34:00,34.2,33.4,29.67,ENE,59,8.1,14.9,97,0.04,,,0.43,0.00,VWS V14.01,2013-12-22 02:34:00,
2013-12-21 20:35:00,34.2,33.4,29.67,ENE,61,10.3,18.4,97,0.04,,,0.43,0.00,VWS V14.01,2013-12-22 02:35:00,
2013-12-21 20:36:00,34.2,33.2,29.67,NNE,15,8.1,14.9,96,0.03,,,0.43,0.00,VWS V14.01,2013-12-22 02:36:00,
2013-12-21 20:37:00,34.1,33.1,29.67,NE,44,6.9,14.9,96,0.04,,,0.44,0.00,VWS V14.01,2013-12-22 02:37:00,
2013-12-21 20:38:00,34.2,33.2,29.67,ENE,70,5.8,14.9,96,0.04,,,0.44,0.00,VWS V14.01,2013-12-22 02:38:00,
2013-12-21 20:40:00,34.1,33.1,29.67,NE,47,10.3,14.9,96,0.04,,,0.44,0.00,VWS V14.01,2013-12-22 02:40:00,
2013-12-21 20:41:00,34.1,33.1,29.67,ENE,60,12.6,12.6,96,0.04,,,0.44,0.00,VWS V14.01,2013-12-22 02:41:00,
2013-12-21 20:43:00,34.1,33.1,29.66,ENE,68,8.1,12.6,96,0.04,,,0.44,0.00,VWS V14.01,2013-12-22 02:43:00,
2013-12-21 20:45:00,34.1,33.1,29.66,NE,52,9.2,12.6,96,0.04,,,0.44,0.00,VWS V14.01,2013-12-22 02:45:00,
2013-12-21 20:46:00,34.1,33.1,29.66,NE,36,5.8,5.8,96,0.04,,,0.44,0.00,VWS V14.01,2013-12-22 02:46:00,
2013-12-21 20:47:00,34.1,33.1,29.65,ENE,78,4.6,5.8,96,0.04,,,0.44,0.00,VWS V14.01,2013-12-22 02:47:00,
2013-12-21 20:49:00,34.0,33.0,29.65,East,87,10.3,12.6,96,0.04,,,0.44,0.00,VWS V14.01,2013-12-22 02:49:00,
2013-12-21 20:50:00,34.0,33.0,29.65,East,80,6.9,12.6,96,0.08,,,0.48,0.00,VWS V14.01,2013-12-22 02:50:00,
2013-12-21 20:51:00,34.0,33.0,29.65,ENE,71,10.3,12.6,96,0.07,,,0.48,0.00,VWS V14.01,2013-12-22 02:51:00,
2013-12-21 20:52:00,34.0,33.0,29.64,NNE,33,6.9,12.6,96,0.07,,,0.48,0.00,VWS V14.01,2013-12-22 02:52:00,
2013-12-21 20:54:00,34.0,33.0,29.65,NNE,30,11.5,12.6,96,0.07,,,0.48,0.00,VWS V14.01,2013-12-22 02:54:00,
2013-12-21 20:55:00,34.0,33.0,29.65,NNE,13,5.8,12.6,96,0.07,,,0.48,0.00,VWS V14.01,2013-12-22 02:55:00,
2013-12-21 20:56:00,34.0,33.0,29.65,NE,39,5.8,11.5,96,0.07,,,0.48,0.00,VWS V14.01,2013-12-22 02:56:00,
2013-12-21 20:57:00,34.0,33.0,29.65,NE,41,5.8,11.5,96,0.07,,,0.48,0.00,VWS V14.01,2013-12-22 02:57:00,
2013-12-21 21:00:00,33.9,32.9,29.64,ENE,66,9.2,12.6,96,0.07,,,0.48,0.00,VWS V14.01,2013-12-22 03:00:00,
2013-12-21 21:01:00,33.9,32.9,29.64,NNE,17,8.1,16.1,96,0.07,,,0.48,0.00,VWS V14.01,2013-12-22 03:01:00,
2013-12-21 21:02:00,33.9,32.9,29.64,NE,44,5.8,16.1,96,0.07,,,0.48,0.00,VWS V14.01,2013-12-22 03:02:00,
2013-12-21 21:03:00,33.9,32.9,29.64,ENE,65,3.4,16.1,96,0.07,,,0.48,0.00,VWS V14.01,2013-12-22 03:03:00,
2013-12-21 21:05:00,33.9,32.9,29.64,NNE,12,6.9,17.2,96,0.07,,,0.48,0.00,VWS V14.01,2013-12-22 03:05:00,
2013-12-21 21:06:00,33.9,32.9,29.64,North,5,5.8,6.9,96,0.07,,,0.48,0.00,VWS V14.01,2013-12-22 03:06:00,
2013-12-21 21:08:00,33.8,33.0,29.65,NNW,348,8.1,9.2,97,0.07,,,0.48,0.00,VWS V14.01,2013-12-22 03:08:00,
2013-12-21 21:10:00,33.8,33.0,29.64,ENE,58,18.4,18.4,97,0.07,,,0.48,0.00,VWS V14.01,2013-12-22 03:10:00,
2013-12-21 21:11:00,33.8,33.0,29.64,NE,54,9.2,9.2,97,0.06,,,0.48,0.00,VWS V14.01,2013-12-22 03:11:00,
2013-12-21 21:13:00,33.8,33.0,29.63,NE,42,9.2,10.3,97,0.06,,,0.48,0.00,VWS V14.01,2013-12-22 03:13:00,
2013-12-21 21:15:00,33.8,33.0,29.64,North,5,3.4,12.6,97,0.06,,,0.48,0.00,VWS V14.01,2013-12-22 03:15:00,
2013-12-21 21:16:00,33.8,33.0,29.65,North,5,6.9,6.9,97,0.06,,,0.48,0.00,VWS V14.01,2013-12-22 03:16:00,
2013-12-21 21:17:00,33.8,33.0,29.66,NNE,17,6.9,13.8,97,0.06,,,0.48,0.00,VWS V14.01,2013-12-22 03:17:00,
2013-12-21 21:19:00,33.8,33.0,29.67,NNE,26,2.3,13.8,97,0.06,,,0.48,0.00,VWS V14.01,2013-12-22 03:19:00,
2013-12-21 21:20:00,33.8,33.0,29.67,North,5,11.5,13.8,97,0.06,,,0.48,0.00,VWS V14.01,2013-12-22 03:20:00,
2013-12-21 21:21:00,33.8,33.0,29.67,NNE,27,8.1,11.5,97,0.05,,,0.48,0.00,VWS V14.01,2013-12-22 03:21:00,
2013-12-21 21:23:00,33.8,33.0,29.66,NE,51,8.1,16.1,97,0.05,,,0.48,0.00,VWS V14.01,2013-12-22 03:23:00,
2013-12-21 21:24:00,33.8,33.0,29.66,ENE,61,10.3,16.1,97,0.05,,,0.48,0.00,VWS V14.01,2013-12-22 03:24:00,
2013-12-21 21:25:00,33.8,33.0,29.66,ENE,78,4.6,16.1,97,0.05,,,0.48,0.00,VWS V14.01,2013-12-22 03:25:00,
2013-12-21 21:27:00,33.8,33.0,29.67,NNE,29,4.6,14.9,97,0.05,,,0.48,0.00,VWS V14.01,2013-12-22 03:27:00,
2013-12-21 21:28:00,33.8,33.0,29.67,NNE,31,11.5,14.9,97,0.05,,,0.48,0.00,VWS V14.01,2013-12-22 03:28:00,
2013-12-21 21:29:00,33.8,33.0,29.67,ENE,62,10.3,14.9,97,0.05,,,0.48,0.00,VWS V14.01,2013-12-22 03:29:00,
2013-12-21 21:31:00,33.8,33.0,29.66,NNE,17,6.9,6.9,97,0.05,,,0.48,0.00,VWS V14.01,2013-12-22 03:31:00,
2013-12-21 21:33:00,33.8,33.0,29.65,NE,55,4.6,12.6,97,0.05,,,0.48,0.00,VWS V14.01,2013-12-22 03:33:00,
2013-12-21 21:34:00,33.8,33.0,29.65,NE,37,9.2,12.6,97,0.05,,,0.48,0.00,VWS V14.01,2013-12-22 03:34:00,
2013-12-21 21:36:00,33.8,33.0,29.64,NE,49,5.8,11.5,97,0.05,,,0.48,0.00,VWS V14.01,2013-12-22 03:36:00,
2013-12-21 21:38:00,33.8,33.0,29.64,NE,53,9.2,13.8,97,0.05,,,0.48,0.00,VWS V14.01,2013-12-22 03:38:00,
2013-12-21 21:39:00,33.8,33.0,29.64,NE,51,3.4,13.8,97,0.05,,,0.48,0.00,VWS V14.01,2013-12-22 03:39:00,
2013-12-21 21:40:00,33.8,33.0,29.63,ENE,60,11.5,13.8,97,0.05,,,0.48,0.00,VWS V14.01,2013-12-22 03:40:00,
2013-12-21 21:42:00,33.8,33.0,29.61,NE,55,9.2,13.8,97,0.04,,,0.48,0.00,VWS V14.01,2013-12-22 03:42:00,
2013-12-21 21:43:00,33.7,32.9,29.60,ENE,58,12.6,13.8,97,0.04,,,0.48,0.00,VWS V14.01,2013-12-22 03:43:00,
2013-12-21 21:44:00,33.7,32.9,29.59,ESE,102,9.2,13.8,97,0.04,,,0.48,0.00,VWS V14.01,2013-12-22 03:44:00,
2013-12-21 21:45:00,33.7,32.9,29.59,NE,42,8.1,13.8,97,0.04,,,0.48,0.00,VWS V14.01,2013-12-22 03:45:00,
2013-12-21 21:46:00,33.7,32.9,29.60,ENE,74,9.2,14.9,97,0.04,,,0.48,0.00,VWS V14.01,2013-12-22 03:46:00,
2013-12-21 21:48:00,33.7,32.9,29.61,NNW,344,3.4,14.9,97,0.04,,,0.48,0.00,VWS V14.01,2013-12-22 03:48:00,
2013-12-21 21:49:00,33.7,32.9,29.62,NE,44,10.3,18.4,97,0.04,,,0.48,0.00,VWS V14.01,2013-12-22 03:49:00,
2013-12-21 21:51:00,33.7,32.9,29.64,East,83,10.3,11.5,97,0.00,,,0.48,0.00,VWS V14.01,2013-12-22 03:51:00,
2013-12-21 21:52:00,33.7,32.9,29.64,NNE,31,3.4,11.5,97,0.00,,,0.48,0.00,VWS V14.01,2013-12-22 03:52:00,
2013-12-21 21:54:00,33.7,32.9,29.63,NE,54,13.8,13.8,97,0.00,,,0.48,0.00,VWS V14.01,2013-12-22 03:54:00,
2013-12-21 21:55:00,33.7,32.9,29.62,NNE,30,12.6,14.9,97,0.00,,,0.48,0.00,VWS V14.01,2013-12-22 03:55:00,
2013-12-21 21:56:00,33.7,32.9,29.60,ENE,58,8.1,14.9,97,0.00,,,0.48,0.00,VWS V14.01,2013-12-22 03:56:00,
2013-12-21 21:57:00,33.7,32.9,29.60,NE,48,14.9,16.1,97,0.00,,,0.48,0.00,VWS V14.01,2013-12-22 03:57:00,
2013-12-21 21:59:00,33.7,32.9,29.59,NE,49,10.3,17.2,97,0.00,,,0.48,0.00,VWS V14.01,2013-12-22 03:59:00,
2013-12-21 22:00:00,33.7,32.9,29.58,NE,47,10.3,19.5,97,0.00,,,0.48,0.00,VWS V14.01,2013-12-22 04:00:00,
2013-12-21 22:01:00,33.6,32.8,29.57,ENE,69,8.1,20.7,97,0.00,,,0.48,0.00,VWS V14.01,2013-12-22 04:01:00,
2013-12-21 22:02:00,33.6,32.8,29.56,NNE,30,8.1,20.7,97,0.00,,,0.48,0.00,VWS V14.01,2013-12-22 04:02:00,
2013-12-21 22:05:00,33.6,32.8,29.57,NE,42,6.9,26.4,97,0.00,,,0.48,0.00,VWS V14.01,2013-12-22 04:05:00,
2013-12-21 22:07:00,33.5,32.5,29.57,NE,44,6.9,23.0,96,0.00,,,0.48,0.00,VWS V14.01,2013-12-22 04:07:00,
2013-12-21 22:10:00,33.6,32.8,29.61,NNW,348,6.9,23.0,97,0.00,,,0.48,0.00,VWS V14.01,2013-12-22 04:10:00,
2013-12-21 22:11:00,33.6,32.8,29.63,ENE,68,4.6,6.9,97,0.00,,,0.48,0.00,VWS V14.01,2013-12-22 04:11:00,
2013-12-21 22:12:00,33.6,32.8,29.64,NNE,23,10.3,17.2,97,0.00,,,0.48,0.00,VWS V14.01,2013-12-22 04:12:00,
2013-12-21 22:13:00,33.6,32.8,29.65,NE,52,0.0,17.2,97,0.00,,,0.48,0.00,VWS V14.01,2013-12-22 04:13:00,
2013-12-21 22:14:00,33.6,32.8,29.66,North,9,6.9,17.2,97,0.00,,,0.48,0.00,VWS V14.01,2013-12-22 04:14:00,
2013-12-21 22:15:00,33.6,32.8,29.66,ENE,57,12.6,17.2,97,0.00,,,0.48,0.00,VWS V14.01,2013-12-22 04:15:00,
2013-12-21 22:16:00,33.6,32.8,29.67,NNE,30,12.6,12.6,97,0.00,,,0.48,0.00,VWS V14.01,2013-12-22 04:16:00,
2013-12-21 22:17:00,33.6,32.8,29.67,NE,42,6.9,12.6,97,0.00,,,0.48,0.00,VWS V14.01,2013-12-22 04:17:00,
2013-12-21 22:18:00,33.6,32.8,29.66,NE,36,10.3,12.6,97,0.00,,,0.48,0.00,VWS V14.01,2013-12-22 04:18:00,
2013-12-21 22:21:00,33.7,32.9,29.64,NNE,24,13.8,13.8,97,0.00,,,0.48,0.00,VWS V14.01,2013-12-22 04:21:00,
2013-12-21 22:22:00,33.7,32.9,29.63,NNE,16,8.1,13.8,97,0.00,,,0.48,0.00,VWS V14.01,2013-12-22 04:22:00,
2013-12-21 22:23:00,33.7,32.9,29.64,NNE,22,6.9,13.8,97,0.00,,,0.48,0.00,VWS V14.01,2013-12-22 04:23:00,
2013-12-21 22:24:00,33.7,32.9,29.65,ENE,67,4.6,13.8,97,0.00,,,0.48,0.00,VWS V14.01,2013-12-22 04:24:00,
2013-12-21 22:27:00,33.7,32.9,29.61,NE,36,5.8,19.5,97,0.00,,,0.48,0.00,VWS V14.01,2013-12-22 04:27:00,
2013-12-21 22:28:00,33.7,32.9,29.61,NNE,24,4.6,19.5,97,0.00,,,0.48,0.00,VWS V14.01,2013-12-22 04:28:00,
2013-12-21 22:29:00,33.7,32.9,29.60,NNE,27,2.3,19.5,97,0.00,,,0.48,0.00,VWS V14.01,2013-12-22 04:29:00,
2013-12-21 22:30:00,33.7,32.9,29.58,NNE,31,13.8,19.5,97,0.00,,,0.48,0.00,VWS V14.01,2013-12-22 04:30:00,
2013-12-21 22:31:00,33.7,32.9,29.57,ENE,78,8.1,18.4,97,0.00,,,0.48,0.00,VWS V14.01,2013-12-22 04:31:00,
2013-12-21 22:33:00,33.6,32.8,29.58,East,92,16.1,19.5,97,0.00,,,0.48,0.00,VWS V14.01,2013-12-22 04:33:00,
2013-12-21 22:34:00,33.6,32.8,29.58,NE,46,2.3,19.5,97,0.00,,,0.48,0.00,VWS V14.01,2013-12-22 04:34:00,
2013-12-21 22:36:00,33.6,32.8,29.58,East,101,14.9,14.9,97,0.00,,,0.48,0.00,VWS V14.01,2013-12-22 04:36:00,
2013-12-21 22:39:00,33.6,32.8,29.60,ENE,65,12.6,14.9,97,0.00,,,0.48,0.00,VWS V14.01,2013-12-22 04:39:00,
2013-12-21 22:42:00,33.6,32.8,29.60,ENE,78,9.2,12.6,97,0.00,,,0.48,0.00,VWS V14.01,2013-12-22 04:42:00,
2013-12-21 22:44:00,33.6,32.6,29.59,NNE,23,17.2,17.2,96,0.00,,,0.48,0.00,VWS V14.01,2013-12-22 04:44:00,
2013-12-21 22:45:00,33.6,32.8,29.59,NE,36,6.9,17.2,97,0.00,,,0.48,0.00,VWS V14.01,2013-12-22 04:45:00,
2013-12-21 22:47:00,33.6,32.8,29.57,NE,41,9.2,20.7,97,0.00,,,0.48,0.00,VWS V14.01,2013-12-22 04:47:00,
2013-12-21 22:48:00,33.5,32.7,29.57,NE,45,13.8,20.7,97,0.00,,,0.48,0.00,VWS V14.01,2013-12-22 04:48:00,
2013-12-21 22:50:00,33.6,32.6,29.57,NE,38,16.1,20.7,96,0.00,,,0.48,0.00,VWS V14.01,2013-12-22 04:50:00,
2013-12-21 22:51:00,33.5,32.5,29.58,NE,40,9.2,16.1,96,0.00,,,0.48,0.00,VWS V14.01,2013-12-22 04:51:00,
2013-12-21 22:52:00,33.5,32.5,29.59,NE,36,13.8,17.2,96,0.00,,,0.48,0.00,VWS V14.01,2013-12-22 04:52:00,
2013-12-21 22:53:00,33.5,32.5,29.60,NE,49,12.6,17.2,96,0.00,,,0.48,0.00,VWS V14.01,2013-12-22 04:53:00,
2013-12-21 22:55:00,33.5,32.5,29.63,NE,46,6.9,17.2,96,0.00,,,0.48,0.00,VWS V14.01,2013-12-22 04:55:00,
2013-12-21 22:56:00,33.5,32.5,29.63,NE,37,11.5,11.5,96,0.00,,,0.48,0.00,VWS V14.01,2013-12-22 04:56:00,
2013-12-21 22:58:00,33.5,32.5,29.62,NE,44,3.4,16.1,96,0.00,,,0.48,0.00,VWS V14.01,2013-12-22 04:58:00,
2013-12-21 22:59:00,33.5,32.5,29.62,NNE,30,8.1,16.1,96,0.00,,,0.48,0.00,VWS V14.01,2013-12-22 04:59:00,
2013-12-21 23:00:00,33.5,32.5,29.62,NNE,33,11.5,16.1,96,0.00,,,0.48,0.00,VWS V14.01,2013-12-22 05:00:00,
2013-12-21 23:01:00,33.5,32.5,29.62,East,90,8.1,11.5,96,0.00,,,0.48,0.00,VWS V14.01,2013-12-22 05:01:00,
2013-12-21 23:02:00,33.5,32.5,29.62,NE,55,10.3,14.9,96,0.00,,,0.48,0.00,VWS V14.01,2013-12-22 05:02:00,
2013-12-21 23:03:00,33.5,32.5,29.63,NNE,15,6.9,14.9,96,0.00,,,0.48,0.00,VWS V14.01,2013-12-22 05:03:00,
2013-12-21 23:06:00,33.6,32.6,29.64,ENE,61,9.2,16.1,96,0.00,,,0.48,0.00,VWS V14.01,2013-12-22 05:06:00,
2013-12-21 23:07:00,33.5,32.5,29.63,North,11,9.2,16.1,96,0.00,,,0.48,0.00,VWS V14.01,2013-12-22 05:07:00,
2013-12-21 23:08:00,33.6,32.6,29.64,ENE,61,12.6,16.1,96,0.00,,,0.48,0.00,VWS V14.01,2013-12-22 05:08:00,
2013-12-21 23:09:00,33.6,32.6,29.63,ESE,120,18.4,18.4,96,0.00,,,0.48,0.00,VWS V14.01,2013-12-22 05:09:00,
2013-12-21 23:12:00,33.6,32.6,29.63,NE,42,4.6,12.6,96,0.00,,,0.48,0.00,VWS V14.01,2013-12-22 05:12:00,
2013-12-21 23:13:00,33.6,32.6,29.62,NE,38,1.1,12.6,96,0.00,,,0.48,0.00,VWS V14.01,2013-12-22 05:13:00,
2013-12-21 23:14:00,33.6,32.6,29.63,North,355,4.6,12.6,96,0.00,,,0.48,0.00,VWS V14.01,2013-12-22 05:14:00,
2013-12-21 23:15:00,33.6,32.6,29.64,North,360,5.8,12.6,96,0.00,,,0.48,0.00,VWS V14.01,2013-12-22 05:15:00,
2013-12-21 23:18:00,33.6,32.6,29.66,ENE,62,5.8,13.8,96,0.00,,,0.48,0.00,VWS V14.01,2013-12-22 05:18:00,
2013-12-21 23:20:00,33.6,32.6,29.66,NNE,33,2.3,13.8,96,0.00,,,0.48,0.00,VWS V14.01,2013-12-22 05:20:00,
2013-12-21 23:21:00,33.6,32.6,29.66,NE,42,1.1,4.6,96,0.00,,,0.48,0.00,VWS V14.01,2013-12-22 05:21:00,
2013-12-21 23:23:00,33.6,32.6,29.65,NE,41,9.2,10.3,96,0.00,,,0.48,0.00,VWS V14.01,2013-12-22 05:23:00,
2013-12-21 23:24:00,33.6,32.6,29.64,North,5,11.5,11.5,96,0.00,,,0.48,0.00,VWS V14.01,2013-12-22 05:24:00,
2013-12-21 23:26:00,33.6,32.6,29.63,NE,53,9.2,9.2,96,0.00,,,0.48,0.00,VWS V14.01,2013-12-22 05:26:00,
2013-12-21 23:27:00,33.6,32.6,29.62,ENE,57,13.8,16.1,96,0.00,,,0.48,0.00,VWS V14.01,2013-12-22 05:27:00,
2013-12-21 23:28:00,33.6,32.6,29.62,NNE,13,1.1,16.1,96,0.01,,,0.49,0.00,VWS V14.01,2013-12-22 05:28:00,
2013-12-21 23:29:00,33.6,32.6,29.62,NE,36,5.8,16.1,96,0.01,,,0.49,0.00,VWS V14.01,2013-12-22 05:29:00,
2013-12-21 23:31:00,33.6,32.6,29.63,NNW,338,8.1,11.5,96,0.01,,,0.49,0.00,VWS V14.01,2013-12-22 05:31:00,
2013-12-21 23:32:00,33.6,32.6,29.63,NNE,17,4.6,11.5,96,0.01,,,0.49,0.00,VWS V14.01,2013-12-22 05:32:00,
2013-12-21 23:34:00,33.6,32.6,29.63,ENE,60,13.8,13.8,96,0.01,,,0.49,0.00,VWS V14.01,2013-12-22 05:34:00,
2013-12-21 23:35:00,33.6,32.6,29.62,ENE,65,12.6,14.9,96,0.01,,,0.49,0.00,VWS V14.01,2013-12-22 05:35:00,
2013-12-21 23:37:00,33.6,32.6,29.61,NE,48,5.8,12.6,96,0.01,,,0.49,0.00,VWS V14.01,2013-12-22 05:37:00,
2013-12-21 23:38:00,33.6,32.6,29.61,ENE,68,8.1,14.9,96,0.01,,,0.49,0.00,VWS V14.01,2013-12-22 05:38:00,
2013-12-21 23:39:00,33.5,32.5,29.61,NNE,17,4.6,14.9,96,0.01,,,0.49,0.00,VWS V14.01,2013-12-22 05:39:00,
2013-12-21 23:40:00,33.5,32.5,29.61,NE,40,3.4,14.9,96,0.01,,,0.49,0.00,VWS V14.01,2013-12-22 05:40:00,
2013-12-21 23:41:00,33.5,32.5,29.61,NNE,16,5.8,8.1,96,0.01,,,0.49,0.00,VWS V14.01,2013-12-22 05:41:00,
2013-12-21 23:42:00,33.5,32.5,29.62,NNE,13,8.1,8.1,96,0.01,,,0.49,0.00,VWS V14.01,2013-12-22 05:42:00,
2013-12-21 23:43:00,33.5,32.5,29.61,North,5,12.6,12.6,96,0.02,,,0.50,0.00,VWS V14.01,2013-12-22 05:43:00,
2013-12-21 23:45:00,33.5,32.5,29.61,NE,47,19.5,19.5,96,0.02,,,0.50,0.00,VWS V14.01,2013-12-22 05:45:00,
2013-12-21 23:46:00,33.5,32.5,29.61,NE,40,10.3,14.9,96,0.02,,,0.50,0.00,VWS V14.01,2013-12-22 05:46:00,
2013-12-21 23:48:00,33.5,32.5,29.62,North,10,4.6,17.2,96,0.02,,,0.50,0.00,VWS V14.01,2013-12-22 05:48:00,
2013-12-21 23:49:00,33.5,32.5,29.63,ENE,60,8.1,17.2,96,0.02,,,0.50,0.00,VWS V14.01,2013-12-22 05:49:00,
2013-12-21 23:50:00,33.5,32.5,29.63,NE,38,6.9,17.2,96,0.02,,,0.50,0.00,VWS V14.01,2013-12-22 05:50:00,
2013-12-21 23:51:00,33.5,32.5,29.63,ENE,65,8.1,12.6,96,0.02,,,0.50,0.00,VWS V14.01,2013-12-22 05:51:00,
2013-12-21 23:53:00,33.5,32.5,29.63,NNW,339,4.6,12.6,96,0.02,,,0.50,0.00,VWS V14.01,2013-12-22 05:53:00,
2013-12-21 23:55:00,33.5,32.5,29.62,NE,56,8.1,18.4,96,0.02,,,0.50,0.00,VWS V14.01,2013-12-22 05:55:00,
2013-12-21 23:56:00,33.6,32.6,29.61,NE,34,8.1,16.1,96,0.02,,,0.50,0.00,VWS V14.01,2013-12-22 05:56:00,
2013-12-21 23:57:00,33.6,32.6,29.61,NNE,18,8.1,16.1,96,0.02,,,0.50,0.00,VWS V14.01,2013-12-22 05:57:00,
2013-12-21 23:59:00,33.6,32.6,29.61,NE,55,5.8,16.1,96,0.02,,,0.50,0.00,VWS V14.01,2013-12-22 05:59:00,